| time (UTC) | temp F | wind direction | speed MPH | gust MPH | rain 1hr in | rain 24hr in | rain mn in | humidity % | barometer mb |
| 20260502224427 | 71 | 236 | 3.0 | 12.0 | 0.00 | 0.00 | 0.00 | 60 | 1010.2 |
| 20260502224236 | 71 | 259 | 3.0 | 12.0 | 0.00 | 0.00 | 0.00 | 60 | 1010.3 |
| 20260502224137 | 71 | 259 | 3.0 | 12.0 | 0.00 | 0.00 | 0.00 | 59 | 1010.3 |
| 20260502224036 | 71 | 250 | 3.0 | 12.0 | 0.00 | 0.00 | 0.00 | 59 | 1010.3 |
| 20260502223936 | 71 | 225 | 2.0 | 9.0 | 0.00 | 0.00 | 0.00 | 59 | 1010.3 |
| 20260502223836 | 71 | 266 | 2.0 | 9.0 | 0.00 | 0.00 | 0.00 | 59 | 1010.3 |
| 20260502223815 | 71 | 241 | 2.0 | 9.0 | 0.00 | 0.00 | 0.00 | 59 | 1010.3 |
| 20260502223736 | 71 | 221 | 2.0 | 9.0 | 0.00 | 0.00 | 0.00 | 59 | 1010.4 |
| 20260502223636 | 71 | 245 | 2.0 | 9.0 | 0.00 | 0.00 | 0.00 | 59 | 1010.4 |
| 20260502223536 | 72 | 288 | 2.0 | 9.0 | 0.00 | 0.00 | 0.00 | 58 | 1010.4 |
| 20260502223436 | 72 | 282 | 2.0 | 7.0 | 0.00 | 0.00 | 0.00 | 58 | 1010.4 |
| 20260502223336 | 71 | 283 | 3.0 | 8.0 | 0.00 | 0.00 | 0.00 | 58 | 1010.4 |
| 20260502223316 | 72 | 283 | 3.0 | 11.0 | 0.00 | 0.00 | 0.00 | 58 | 1010.4 |
| 20260502223236 | 72 | 283 | 3.0 | 11.0 | 0.00 | 0.00 | 0.00 | 58 | 1010.4 |
| 20260502223136 | 72 | 256 | 3.0 | 11.0 | 0.00 | 0.00 | 0.00 | 58 | 1010.4 |
| 20260502223037 | 71 | 250 | 3.0 | 11.0 | 0.00 | 0.00 | 0.00 | 58 | 1010.4 |
| 20260502222936 | 71 | 212 | 3.0 | 11.0 | 0.00 | 0.00 | 0.00 | 59 | 1010.5 |
| 20260502222836 | 71 | 253 | 3.0 | 11.0 | 0.00 | 0.00 | 0.00 | 60 | 1010.5 |
| 20260502222813 | 71 | 221 | 3.0 | 11.0 | 0.00 | 0.00 | 0.00 | 60 | 1010.5 |
| 20260502222736 | 71 | 231 | 3.0 | 11.0 | 0.00 | 0.00 | 0.00 | 60 | 1010.5 |
| 20260502222636 | 71 | 316 | 4.0 | 11.0 | 0.00 | 0.00 | 0.00 | 59 | 1010.5 |
| 20260502222537 | 71 | 302 | 4.0 | 11.0 | 0.00 | 0.00 | 0.00 | 59 | 1010.5 |
| 20260502222432 | 71 | 239 | 4.0 | 11.0 | 0.00 | 0.00 | 0.00 | 57 | 1010.5 |
| 20260502222332 | 71 | 243 | 4.0 | 11.0 | 0.00 | 0.00 | 0.00 | 58 | 1010.5 |
| 20260502222313 | 71 | 239 | 4.0 | 11.0 | 0.00 | 0.00 | 0.00 | 58 | 1010.5 |
| 20260502222233 | 71 | 243 | 4.0 | 11.0 | 0.00 | 0.00 | 0.00 | 57 | 1010.5 |
| 20260502222132 | 72 | 221 | 4.0 | 11.0 | 0.00 | 0.00 | 0.00 | 57 | 1010.6 |
| 20260502222032 | 72 | 263 | 4.0 | 11.0 | 0.00 | 0.00 | 0.00 | 59 | 1010.5 |
| 20260502221932 | 72 | 267 | 4.0 | 11.0 | 0.00 | 0.00 | 0.00 | 58 | 1010.6 |
| 20260502221833 | 71 | 239 | 4.0 | 11.0 | 0.00 | 0.00 | 0.00 | 58 | 1010.7 |
| 20260502221815 | 71 | 287 | 4.0 | 11.0 | 0.00 | 0.00 | 0.00 | 58 | 1010.7 |
| 20260502221801 | 72 | 248 | 3.0 | 9.0 | 0.00 | 0.00 | 0.00 | 57 | 1010.7 |
| 20260502221732 | 71 | 224 | 4.0 | 11.0 | 0.00 | 0.00 | 0.00 | 59 | 1010.7 |
| 20260502221648 | 71 | 260 | 4.0 | 11.0 | 0.00 | 0.00 | 0.00 | 59 | 1010.7 |
| 20260502221532 | 71 | 221 | 4.0 | 11.0 | 0.00 | 0.00 | 0.00 | 59 | 1010.7 |
| 20260502221434 | 71 | 259 | 4.0 | 11.0 | 0.00 | 0.00 | 0.00 | 59 | 1010.7 |
| 20260502221426 | 71 | 215 | 3.0 | 11.0 | 0.00 | 0.00 | 0.00 | 57 | 1010.7 |
| 20260502221233 | 72 | 231 | 3.0 | 9.0 | 0.00 | 0.00 | 0.00 | 58 | 1010.7 |
| 20260502221132 | 72 | 242 | 3.0 | 9.0 | 0.00 | 0.00 | 0.00 | 59 | 1010.7 |
| 20260502221032 | 72 | 242 | 2.0 | 9.0 | 0.00 | 0.00 | 0.00 | 58 | 1010.7 |
| 20260502220932 | 72 | 260 | 2.0 | 9.0 | 0.00 | 0.00 | 0.00 | 59 | 1010.7 |
| 20260502220832 | 72 | 222 | 2.0 | 8.0 | 0.00 | 0.00 | 0.00 | 59 | 1010.7 |
| 20260502220816 | 72 | 239 | 2.0 | 8.0 | 0.00 | 0.00 | 0.00 | 60 | 1010.7 |
| 20260502220732 | 72 | 203 | 3.0 | 8.0 | 0.00 | 0.00 | 0.00 | 60 | 1010.8 |
| 20260502220632 | 72 | 165 | 3.0 | 11.0 | 0.00 | 0.00 | 0.00 | 61 | 1010.8 |
| 20260502220528 | 72 | 238 | 3.0 | 11.0 | 0.00 | 0.00 | 0.00 | 61 | 1010.8 |
| 20260502220428 | 71 | 248 | 3.0 | 11.0 | 0.00 | 0.00 | 0.00 | 61 | 1010.8 |
| 20260502220328 | 71 | 256 | 3.0 | 11.0 | 0.00 | 0.00 | 0.00 | 62 | 1010.8 |
| 20260502220308 | 71 | 252 | 3.0 | 11.0 | 0.00 | 0.00 | 0.00 | 61 | 1010.8 |
| 20260502220228 | 71 | 269 | 3.0 | 11.0 | 0.00 | 0.00 | 0.00 | 62 | 1010.8 |
| 20260502220128 | 71 | 233 | 3.0 | 11.0 | 0.00 | 0.00 | 0.00 | 61 | 1010.8 |
| 20260502220026 | 71 | 235 | 4.0 | 11.0 | 0.00 | 0.00 | 0.00 | 61 | 1010.8 |
| 20260502215926 | 71 | 304 | 4.0 | 11.0 | 0.00 | 0.00 | 0.00 | 61 | 1010.9 |
| 20260502215843 | 71 | 210 | 4.0 | 11.0 | 0.00 | 0.00 | 0.00 | 61 | 1010.9 |
| 20260502215811 | 71 | 125 | 4.0 | 11.0 | 0.00 | 0.00 | 0.00 | 60 | 1010.9 |
| 20260502215728 | 71 | 208 | 3.0 | 11.0 | 0.00 | 0.00 | 0.00 | 60 | 1010.9 |
| 20260502215626 | 71 | 245 | 3.0 | 9.0 | 0.00 | 0.00 | 0.00 | 60 | 1010.9 |
| 20260502215526 | 71 | 252 | 2.0 | 9.0 | 0.00 | 0.00 | 0.00 | 60 | 1010.9 |
| 20260502215426 | 71 | 229 | 2.0 | 9.0 | 0.00 | 0.00 | 0.00 | 61 | 1011.0 |
| 20260502215326 | 71 | 288 | 3.0 | 9.0 | 0.00 | 0.00 | 0.00 | 61 | 1010.9 |
| 20260502215307 | 71 | 298 | 3.0 | 9.0 | 0.00 | 0.00 | 0.00 | 61 | 1010.9 |
| 20260502215229 | 71 | 298 | 3.0 | 10.0 | 0.00 | 0.00 | 0.00 | 63 | 1011.0 |
| 20260502215126 | 71 | 298 | 3.0 | 10.0 | 0.00 | 0.00 | 0.00 | 62 | 1011.0 |
| 20260502215026 | 71 | 242 | 3.0 | 10.0 | 0.00 | 0.00 | 0.00 | 61 | 1011.0 |
| 20260502214926 | 71 | 242 | 3.0 | 10.0 | 0.00 | 0.00 | 0.00 | 61 | 1011.0 |
| 20260502214827 | 71 | 239 | 3.0 | 10.0 | 0.00 | 0.00 | 0.00 | 61 | 1011.0 |
| 20260502214807 | 71 | 238 | 3.0 | 10.0 | 0.00 | 0.00 | 0.00 | 61 | 1011.0 |
| 20260502214725 | 71 | 233 | 4.0 | 10.0 | 0.00 | 0.00 | 0.00 | 61 | 1011.1 |
| 20260502214624 | 71 | 233 | 4.0 | 10.0 | 0.00 | 0.00 | 0.00 | 61 | 1011.1 |
| 20260502214524 | 71 | 273 | 5.0 | 10.0 | 0.00 | 0.00 | 0.00 | 61 | 1011.1 |
| 20260502214424 | 70 | 228 | 5.0 | 12.0 | 0.00 | 0.00 | 0.00 | 61 | 1011.1 |
| 20260502214324 | 70 | 246 | 5.0 | 12.0 | 0.00 | 0.00 | 0.00 | 61 | 1011.1 |
| 20260502214305 | 70 | 243 | 5.0 | 12.0 | 0.00 | 0.00 | 0.00 | 61 | 1011.1 |
| 20260502214224 | 70 | 256 | 4.0 | 12.0 | 0.00 | 0.00 | 0.00 | 63 | 1011.1 |
| 20260502214124 | 70 | 235 | 4.0 | 12.0 | 0.00 | 0.00 | 0.00 | 62 | 1011.1 |
| 20260502214024 | 70 | 218 | 4.0 | 12.0 | 0.00 | 0.00 | 0.00 | 62 | 1011.2 |
| 20260502213924 | 70 | 225 | 4.0 | 12.0 | 0.00 | 0.00 | 0.00 | 61 | 1011.2 |
| 20260502213824 | 70 | 222 | 4.0 | 12.0 | 0.00 | 0.00 | 0.00 | 61 | 1011.2 |
| 20260502213806 | 71 | 241 | 4.0 | 12.0 | 0.00 | 0.00 | 0.00 | 61 | 1011.2 |
| 20260502213727 | 71 | 273 | 4.0 | 12.0 | 0.00 | 0.00 | 0.00 | 60 | 1011.2 |
| 20260502213624 | 71 | 210 | 3.0 | 12.0 | 0.00 | 0.00 | 0.00 | 60 | 1011.2 |
| 20260502213525 | 71 | 282 | 3.0 | 12.0 | 0.00 | 0.00 | 0.00 | 60 | 1011.2 |
| 20260502213419 | 71 | 233 | 2.0 | 9.0 | 0.00 | 0.00 | 0.00 | 61 | 1011.2 |
| 20260502213306 | 71 | 257 | 2.0 | 9.0 | 0.00 | 0.00 | 0.00 | 62 | 1011.2 |
| 20260502213220 | 71 | 253 | 2.0 | 9.0 | 0.00 | 0.00 | 0.00 | 62 | 1011.2 |
| 20260502213121 | 71 | 223 | 3.0 | 9.0 | 0.00 | 0.00 | 0.00 | 61 | 1011.2 |
| 20260502213028 | 71 | 250 | 2.0 | 6.0 | 0.00 | 0.00 | 0.00 | 62 | 1011.3 |
| 20260502213020 | 71 | 229 | 2.0 | 9.0 | 0.00 | 0.00 | 0.00 | 60 | 1011.3 |
| 20260502212925 | 71 | 240 | 2.0 | 6.0 | 0.00 | 0.00 | 0.00 | 61 | 1011.3 |
| 20260502212916 | 71 | 248 | 2.0 | 6.0 | 0.00 | 0.00 | 0.00 | 62 | 1011.3 |
| 20260502212722 | 71 | 245 | 3.0 | 7.0 | 0.00 | 0.00 | 0.00 | 63 | 1011.3 |
| 20260502212620 | 70 | 194 | 3.0 | 12.0 | 0.00 | 0.00 | 0.00 | 63 | 1011.2 |
| 20260502212528 | 70 | 253 | 4.0 | 12.0 | 0.00 | 0.00 | 0.00 | 64 | 1011.3 |
| 20260502212520 | 70 | 307 | 3.0 | 12.0 | 0.00 | 0.00 | 0.00 | 64 | 1011.3 |
| 20260502212423 | 70 | 259 | 3.0 | 12.0 | 0.00 | 0.00 | 0.00 | 63 | 1011.3 |
| 20260502212415 | 70 | 252 | 4.0 | 12.0 | 0.00 | 0.00 | 0.00 | 64 | 1011.3 |
| 20260502212220 | 70 | 266 | 4.0 | 12.0 | 0.00 | 0.00 | 0.00 | 64 | 1011.3 |
| 20260502212120 | 70 | 259 | 4.0 | 12.0 | 0.00 | 0.00 | 0.00 | 63 | 1011.3 |
| 20260502212020 | 70 | 228 | 4.0 | 12.0 | 0.00 | 0.00 | 0.00 | 63 | 1011.3 |
| 20260502211920 | 70 | 239 | 5.0 | 12.0 | 0.00 | 0.00 | 0.00 | 63 | 1011.3 |
| 20260502211819 | 70 | 245 | 5.0 | 12.0 | 0.00 | 0.00 | 0.00 | 63 | 1011.3 |
| 20260502211804 | 70 | 210 | 5.0 | 12.0 | 0.00 | 0.00 | 0.00 | 63 | 1011.3 |
| 20260502211745 | 69 | 193 | 5.0 | 15.0 | 0.00 | 0.00 | 0.00 | 65 | 1011.4 |
| 20260502211720 | 70 | 264 | 6.0 | 15.0 | 0.00 | 0.00 | 0.00 | 63 | 1011.4 |
| 20260502211638 | 70 | 229 | 6.0 | 15.0 | 0.00 | 0.00 | 0.00 | 63 | 1011.4 |
| 20260502211516 | 70 | 187 | 6.0 | 15.0 | 0.00 | 0.00 | 0.00 | 64 | 1011.4 |
| 20260502211423 | 70 | 205 | 5.0 | 15.0 | 0.00 | 0.00 | 0.00 | 64 | 1011.4 |
| 20260502211414 | 69 | 218 | 5.0 | 15.0 | 0.00 | 0.00 | 0.00 | 65 | 1011.4 |
| 20260502211216 | 69 | 240 | 5.0 | 15.0 | 0.00 | 0.00 | 0.00 | 65 | 1011.4 |
| 20260502211114 | 69 | 257 | 5.0 | 15.0 | 0.00 | 0.00 | 0.00 | 64 | 1011.4 |
| 20260502211013 | 70 | 243 | 5.0 | 15.0 | 0.00 | 0.00 | 0.00 | 62 | 1011.4 |
| 20260502210914 | 70 | 215 | 4.0 | 15.0 | 0.00 | 0.00 | 0.00 | 62 | 1011.5 |
| 20260502210816 | 70 | 183 | 4.0 | 15.0 | 0.00 | 0.00 | 0.00 | 61 | 1011.5 |
| 20260502210806 | 70 | 225 | 4.0 | 15.0 | 0.00 | 0.00 | 0.00 | 61 | 1011.5 |
| 20260502210715 | 71 | 232 | 3.0 | 12.0 | 0.00 | 0.00 | 0.00 | 62 | 1011.5 |
| 20260502210614 | 71 | 161 | 3.0 | 9.0 | 0.00 | 0.00 | 0.00 | 61 | 1011.5 |
| 20260502210514 | 71 | 171 | 3.0 | 8.0 | 0.00 | 0.00 | 0.00 | 63 | 1011.5 |
| 20260502210415 | 71 | 232 | 4.0 | 8.0 | 0.00 | 0.00 | 0.00 | 64 | 1011.6 |
| 20260502210303 | 71 | 228 | 4.0 | 8.0 | 0.00 | 0.00 | 0.00 | 64 | 1011.5 |
| 20260502210210 | 70 | 226 | 4.0 | 8.0 | 0.00 | 0.00 | 0.00 | 64 | 1011.5 |
| 20260502210110 | 70 | 264 | 4.0 | 8.0 | 0.00 | 0.00 | 0.00 | 64 | 1011.5 |
| 20260502210010 | 70 | 288 | 4.0 | 8.0 | 0.00 | 0.00 | 0.00 | 63 | 1011.6 |
| 20260502205910 | 71 | 225 | 4.0 | 8.0 | 0.00 | 0.00 | 0.00 | 63 | 1011.6 |
| 20260502205814 | 71 | 217 | 3.0 | 8.0 | 0.00 | 0.00 | 0.00 | 63 | 1011.6 |
| 20260502205803 | 71 | 224 | 3.0 | 8.0 | 0.00 | 0.00 | 0.00 | 63 | 1011.6 |
| 20260502205711 | 71 | 217 | 3.0 | 7.0 | 0.00 | 0.00 | 0.00 | 63 | 1011.6 |
| 20260502205610 | 71 | 235 | 3.0 | 7.0 | 0.00 | 0.00 | 0.00 | 63 | 1011.6 |
| 20260502205510 | 71 | 154 | 3.0 | 7.0 | 0.00 | 0.00 | 0.00 | 63 | 1011.6 |
| 20260502205410 | 71 | 143 | 3.0 | 7.0 | 0.00 | 0.00 | 0.00 | 63 | 1011.6 |
| 20260502205305 | 70 | 273 | 3.0 | 7.0 | 0.00 | 0.00 | 0.00 | 64 | 1011.6 |
| 20260502205210 | 70 | 250 | 3.0 | 8.0 | 0.00 | 0.00 | 0.00 | 65 | 1011.6 |
| 20260502205110 | 70 | 224 | 3.0 | 9.0 | 0.00 | 0.00 | 0.00 | 64 | 1011.7 |
| 20260502205033 | 69 | 294 | 4.0 | 9.0 | 0.00 | 0.00 | 0.00 | 67 | 1011.6 |
| 20260502205010 | 70 | 233 | 4.0 | 9.0 | 0.00 | 0.00 | 0.00 | 66 | 1011.7 |
| 20260502204923 | 69 | 226 | 4.0 | 9.0 | 0.00 | 0.00 | 0.00 | 66 | 1011.7 |
| 20260502204915 | 69 | 287 | 4.0 | 9.0 | 0.00 | 0.00 | 0.00 | 67 | 1011.6 |
| 20260502204710 | 69 | 238 | 4.0 | 9.0 | 0.00 | 0.00 | 0.00 | 68 | 1011.7 |
| 20260502204610 | 69 | 235 | 4.0 | 9.0 | 0.00 | 0.00 | 0.00 | 67 | 1011.7 |
| 20260502204510 | 69 | 235 | 5.0 | 10.0 | 0.00 | 0.00 | 0.00 | 66 | 1011.8 |
| 20260502204406 | 69 | 221 | 5.0 | 10.0 | 0.00 | 0.00 | 0.00 | 66 | 1011.7 |
| 20260502204309 | 69 | 163 | 5.0 | 10.0 | 0.00 | 0.00 | 0.00 | 66 | 1011.8 |
| 20260502204206 | 69 | 217 | 4.0 | 10.0 | 0.00 | 0.00 | 0.00 | 66 | 1011.8 |
| 20260502204106 | 69 | 225 | 4.0 | 10.0 | 0.00 | 0.00 | 0.00 | 65 | 1011.8 |
| 20260502204006 | 69 | 245 | 4.0 | 13.0 | 0.00 | 0.00 | 0.00 | 66 | 1011.8 |
| 20260502203906 | 69 | 216 | 4.0 | 13.0 | 0.00 | 0.00 | 0.00 | 66 | 1011.8 |
| 20260502203807 | 69 | 260 | 4.0 | 13.0 | 0.00 | 0.00 | 0.00 | 66 | 1011.8 |
| 20260502203706 | 69 | 228 | 5.0 | 13.0 | 0.00 | 0.00 | 0.00 | 65 | 1011.8 |
| 20260502203607 | 69 | 242 | 5.0 | 13.0 | 0.00 | 0.00 | 0.00 | 64 | 1011.8 |
| 20260502203506 | 69 | 256 | 4.0 | 13.0 | 0.00 | 0.00 | 0.00 | 64 | 1011.9 |
| 20260502203406 | 69 | 253 | 4.0 | 13.0 | 0.00 | 0.00 | 0.00 | 64 | 1011.8 |
| 20260502203307 | 69 | 225 | 4.0 | 13.0 | 0.00 | 0.00 | 0.00 | 66 | 1011.8 |
| 20260502203206 | 69 | 218 | 4.0 | 13.0 | 0.00 | 0.00 | 0.00 | 65 | 1011.8 |
| 20260502203106 | 69 | 214 | 4.0 | 13.0 | 0.00 | 0.00 | 0.00 | 65 | 1011.8 |
| 20260502203006 | 69 | 225 | 4.0 | 11.0 | 0.00 | 0.00 | 0.00 | 65 | 1011.9 |
| 20260502202906 | 69 | 305 | 4.0 | 10.0 | 0.00 | 0.00 | 0.00 | 65 | 1011.8 |
| 20260502202807 | 69 | 187 | 4.0 | 11.0 | 0.00 | 0.00 | 0.00 | 65 | 1011.9 |
| 20260502202706 | 69 | 165 | 4.0 | 13.0 | 0.00 | 0.00 | 0.00 | 64 | 1011.9 |
| 20260502202606 | 69 | 240 | 4.0 | 13.0 | 0.00 | 0.00 | 0.00 | 65 | 1011.9 |
| 20260502202502 | 68 | 186 | 4.0 | 13.0 | 0.00 | 0.00 | 0.00 | 66 | 1011.9 |
| 20260502202402 | 68 | 241 | 5.0 | 13.0 | 0.00 | 0.00 | 0.00 | 66 | 1011.9 |
| 20260502202309 | 68 | 252 | 5.0 | 13.0 | 0.00 | 0.00 | 0.00 | 67 | 1011.9 |
| 20260502202304 | 68 | 233 | 5.0 | 13.0 | 0.00 | 0.00 | 0.00 | 67 | 1011.9 |
| 20260502202202 | 68 | 233 | 5.0 | 13.0 | 0.00 | 0.00 | 0.00 | 66 | 1011.9 |
| 20260502202103 | 68 | 213 | 5.0 | 13.0 | 0.00 | 0.00 | 0.00 | 65 | 1011.9 |
| 20260502202003 | 68 | 211 | 4.0 | 13.0 | 0.00 | 0.00 | 0.00 | 65 | 1011.9 |
| 20260502201902 | 68 | 198 | 4.0 | 13.0 | 0.00 | 0.00 | 0.00 | 64 | 1012.0 |
| 20260502201810 | 69 | 242 | 3.0 | 13.0 | 0.00 | 0.00 | 0.00 | 64 | 1012.0 |
| 20260502201802 | 69 | 238 | 3.0 | 13.0 | 0.00 | 0.00 | 0.00 | 64 | 1012.0 |
| 20260502201702 | 69 | 193 | 3.0 | 10.0 | 0.00 | 0.00 | 0.00 | 65 | 1012.0 |
| 20260502201602 | 69 | 229 | 3.0 | 10.0 | 0.00 | 0.00 | 0.00 | 65 | 1012.0 |
| 20260502201502 | 69 | 250 | 3.0 | 9.0 | 0.00 | 0.00 | 0.00 | 65 | 1011.9 |
| 20260502201403 | 69 | 250 | 3.0 | 9.0 | 0.00 | 0.00 | 0.00 | 64 | 1012.0 |
| 20260502201311 | 70 | 243 | 2.0 | 9.0 | 0.00 | 0.00 | 0.00 | 66 | 1012.0 |
| 20260502201302 | 70 | 229 | 2.0 | 9.0 | 0.00 | 0.00 | 0.00 | 66 | 1012.0 |
| 20260502201202 | 69 | 219 | 2.0 | 8.0 | 0.00 | 0.00 | 0.00 | 66 | 1012.0 |
| 20260502201102 | 69 | 310 | 2.0 | 8.0 | 0.00 | 0.00 | 0.00 | 67 | 1012.0 |
| 20260502201002 | 69 | 312 | 2.0 | 8.0 | 0.00 | 0.00 | 0.00 | 67 | 1012.0 |
| 20260502200902 | 69 | 238 | 2.0 | 8.0 | 0.00 | 0.00 | 0.00 | 67 | 1012.0 |
| 20260502200809 | 69 | 285 | 3.0 | 9.0 | 0.00 | 0.00 | 0.00 | 66 | 1012.0 |
| 20260502200802 | 69 | 285 | 3.0 | 9.0 | 0.00 | 0.00 | 0.00 | 67 | 1012.0 |
| 20260502200702 | 69 | 311 | 3.0 | 9.0 | 0.00 | 0.00 | 0.00 | 66 | 1012.0 |
| 20260502200558 | 69 | 271 | 3.0 | 9.0 | 0.00 | 0.00 | 0.00 | 66 | 1012.1 |
| 20260502200508 | 68 | 253 | 3.0 | 11.0 | 0.00 | 0.00 | 0.00 | 68 | 1012.1 |
| 20260502200458 | 69 | 225 | 3.0 | 11.0 | 0.00 | 0.00 | 0.00 | 67 | 1012.0 |
| 20260502200411 | 69 | 205 | 3.0 | 11.0 | 0.00 | 0.00 | 0.00 | 67 | 1012.1 |
| 20260502200401 | 68 | 235 | 3.0 | 11.0 | 0.00 | 0.00 | 0.00 | 67 | 1012.0 |
| 20260502200354 | 68 | 256 | 3.0 | 11.0 | 0.00 | 0.00 | 0.00 | 67 | 1012.0 |
| 20260502200158 | 68 | 248 | 3.0 | 11.0 | 0.00 | 0.00 | 0.00 | 68 | 1012.0 |
| 20260502200135 | 68 | 239 | 3.0 | 11.0 | 0.00 | 0.00 | 0.00 | 67 | 1012.0 |
| 20260502200000 | 68 | 300 | 3.0 | 11.0 | 0.00 | 0.00 | 0.00 | 68 | 1012.1 |
| 20260502195913 | 68 | 236 | 3.0 | 11.0 | 0.00 | 0.00 | 0.00 | 68 | 1012.1 |
| 20260502195756 | 68 | 186 | 3.0 | 11.0 | 0.00 | 0.00 | 0.00 | 68 | 1012.1 |
| 20260502195656 | 67 | 233 | 3.0 | 11.0 | 0.00 | 0.00 | 0.00 | 68 | 1012.1 |
| 20260502195557 | 67 | 254 | 3.0 | 11.0 | 0.00 | 0.00 | 0.00 | 70 | 1012.1 |
| 20260502195456 | 67 | 200 | 3.0 | 9.0 | 0.00 | 0.00 | 0.00 | 70 | 1012.1 |
| 20260502195352 | 67 | 221 | 3.0 | 9.0 | 0.00 | 0.00 | 0.00 | 70 | 1012.1 |
| 20260502195305 | 67 | 233 | 3.0 | 9.0 | 0.00 | 0.00 | 0.00 | 70 | 1012.2 |
| 20260502195252 | 67 | 186 | 3.0 | 9.0 | 0.00 | 0.00 | 0.00 | 70 | 1012.2 |
| 20260502195152 | 67 | 174 | 3.0 | 10.0 | 0.00 | 0.00 | 0.00 | 71 | 1012.1 |
| 20260502195052 | 66 | 136 | 3.0 | 10.0 | 0.00 | 0.00 | 0.00 | 72 | 1012.2 |
| 20260502194952 | 66 | 256 | 4.0 | 10.0 | 0.00 | 0.00 | 0.00 | 73 | 1012.2 |
| 20260502194852 | 66 | 240 | 4.0 | 10.0 | 0.00 | 0.00 | 0.00 | 72 | 1012.2 |
| 20260502194801 | 65 | 218 | 4.0 | 10.0 | 0.00 | 0.00 | 0.00 | 72 | 1012.2 |
| 20260502194752 | 65 | 219 | 4.0 | 10.0 | 0.00 | 0.00 | 0.00 | 72 | 1012.2 |
| 20260502194652 | 65 | 243 | 4.0 | 10.0 | 0.00 | 0.00 | 0.00 | 72 | 1012.2 |
| 20260502194553 | 65 | 246 | 4.0 | 10.0 | 0.00 | 0.00 | 0.00 | 72 | 1012.2 |
| 20260502194452 | 65 | 239 | 4.0 | 10.0 | 0.00 | 0.00 | 0.00 | 73 | 1012.2 |
| 20260502194352 | 65 | 277 | 4.0 | 10.0 | 0.00 | 0.00 | 0.00 | 73 | 1012.2 |
| 20260502194301 | 65 | 240 | 3.0 | 10.0 | 0.00 | 0.00 | 0.00 | 72 | 1012.2 |
| 20260502194252 | 65 | 225 | 3.0 | 10.0 | 0.00 | 0.00 | 0.00 | 72 | 1012.2 |
| 20260502194152 | 65 | 222 | 3.0 | 8.0 | 0.00 | 0.00 | 0.00 | 73 | 1012.3 |
| 20260502194052 | 65 | 256 | 3.0 | 8.0 | 0.00 | 0.00 | 0.00 | 73 | 1012.2 |
| 20260502193952 | 65 | 273 | 2.0 | 8.0 | 0.00 | 0.00 | 0.00 | 72 | 1012.3 |
| 20260502193852 | 65 | 214 | 2.0 | 8.0 | 0.00 | 0.00 | 0.00 | 72 | 1012.3 |
| 20260502193821 | 65 | 236 | 2.0 | 8.0 | 0.00 | 0.00 | 0.00 | 72 | 1012.3 |
| 20260502193803 | 65 | 242 | 2.0 | 8.0 | 0.00 | 0.00 | 0.00 | 72 | 1012.3 |
| 20260502193652 | 65 | 248 | 2.0 | 8.0 | 0.00 | 0.00 | 0.00 | 73 | 1012.3 |
| 20260502193553 | 65 | 284 | 2.0 | 11.0 | 0.00 | 0.00 | 0.00 | 72 | 1012.2 |
| 20260502193448 | 65 | 239 | 2.0 | 11.0 | 0.00 | 0.00 | 0.00 | 73 | 1012.3 |
| 20260502193348 | 65 | 212 | 2.0 | 11.0 | 0.00 | 0.00 | 0.00 | 73 | 1012.3 |
| 20260502193248 | 65 | 204 | 3.0 | 11.0 | 0.00 | 0.00 | 0.00 | 73 | 1012.3 |
| 20260502193148 | 65 | 235 | 3.0 | 11.0 | 0.00 | 0.00 | 0.00 | 73 | 1012.3 |
| 20260502193048 | 65 | 240 | 3.0 | 11.0 | 0.00 | 0.00 | 0.00 | 73 | 1012.3 |
| 20260502192948 | 65 | 240 | 3.0 | 11.0 | 0.00 | 0.00 | 0.00 | 73 | 1012.3 |
| 20260502192848 | 65 | 246 | 4.0 | 11.0 | 0.00 | 0.00 | 0.00 | 73 | 1012.3 |
| 20260502192802 | 65 | 252 | 4.0 | 11.0 | 0.00 | 0.00 | 0.00 | 72 | 1012.3 |
| 20260502192748 | 65 | 229 | 4.0 | 11.0 | 0.00 | 0.00 | 0.00 | 72 | 1012.3 |
| 20260502192648 | 65 | 214 | 3.0 | 11.0 | 0.00 | 0.00 | 0.00 | 72 | 1012.3 |
| 20260502192548 | 65 | 228 | 2.0 | 9.0 | 0.00 | 0.00 | 0.00 | 73 | 1012.3 |
| 20260502192448 | 65 | 222 | 2.0 | 9.0 | 0.00 | 0.00 | 0.00 | 72 | 1012.3 |
| 20260502192348 | 65 | 243 | 2.0 | 9.0 | 0.00 | 0.00 | 0.00 | 72 | 1012.3 |
| 20260502192305 | 65 | 252 | 2.0 | 9.0 | 0.00 | 0.00 | 0.00 | 72 | 1012.3 |
| 20260502192246 | 65 | 246 | 2.0 | 9.0 | 0.00 | 0.00 | 0.00 | 72 | 1012.4 |
| 20260502192146 | 65 | 212 | 2.0 | 9.0 | 0.00 | 0.00 | 0.00 | 72 | 1012.4 |
| 20260502192046 | 65 | 236 | 2.0 | 8.0 | 0.00 | 0.00 | 0.00 | 73 | 1012.4 |
| 20260502191946 | 65 | 160 | 2.0 | 7.0 | 0.00 | 0.00 | 0.00 | 73 | 1012.3 |
| 20260502191846 | 65 | 239 | 2.0 | 7.0 | 0.00 | 0.00 | 0.00 | 74 | 1012.3 |
| 20260502191802 | 65 | 253 | 2.0 | 7.0 | 0.00 | 0.00 | 0.00 | 76 | 1012.3 |
| 20260502191747 | 64 | 248 | 2.0 | 7.0 | 0.00 | 0.00 | 0.00 | 76 | 1012.3 |
| 20260502191644 | 64 | 158 | 2.0 | 7.0 | 0.00 | 0.00 | 0.00 | 75 | 1012.3 |
| 20260502191544 | 64 | 274 | 3.0 | 8.0 | 0.00 | 0.00 | 0.00 | 75 | 1012.3 |
| 20260502191518 | 63 | 235 | 3.0 | 9.0 | 0.00 | 0.00 | 0.00 | 76 | 1012.4 |
| 20260502191444 | 64 | 238 | 3.0 | 8.0 | 0.00 | 0.00 | 0.00 | 75 | 1012.3 |
| 20260502191412 | 63 | 222 | 3.0 | 8.0 | 0.00 | 0.00 | 0.00 | 76 | 1012.4 |
| 20260502191244 | 63 | 235 | 3.0 | 9.0 | 0.00 | 0.00 | 0.00 | 76 | 1012.4 |
| 20260502191144 | 63 | 242 | 3.0 | 9.0 | 0.00 | 0.00 | 0.00 | 78 | 1012.5 |
| 20260502191044 | 62 | 242 | 4.0 | 10.0 | 0.00 | 0.00 | 0.00 | 77 | 1012.4 |
| 20260502190944 | 62 | 257 | 4.0 | 10.0 | 0.00 | 0.00 | 0.00 | 77 | 1012.4 |
| 20260502190844 | 62 | 253 | 5.0 | 12.0 | 0.00 | 0.00 | 0.00 | 77 | 1012.5 |
| 20260502190801 | 62 | 248 | 5.0 | 12.0 | 0.00 | 0.00 | 0.00 | 77 | 1012.5 |
| 20260502190745 | 62 | 236 | 5.0 | 12.0 | 0.00 | 0.00 | 0.00 | 77 | 1012.5 |
| 20260502190644 | 62 | 256 | 5.0 | 12.0 | 0.00 | 0.00 | 0.00 | 77 | 1012.6 |
| 20260502190544 | 62 | 221 | 4.0 | 12.0 | 0.00 | 0.00 | 0.00 | 78 | 1012.6 |
| 20260502190444 | 62 | 250 | 5.0 | 12.0 | 0.00 | 0.00 | 0.00 | 78 | 1012.6 |
| 20260502190344 | 61 | 215 | 5.0 | 12.0 | 0.00 | 0.00 | 0.00 | 77 | 1012.6 |
| 20260502190301 | 61 | 248 | 4.0 | 12.0 | 0.00 | 0.00 | 0.00 | 78 | 1012.6 |
| 20260502190245 | 61 | 235 | 4.0 | 12.0 | 0.00 | 0.00 | 0.00 | 78 | 1012.6 |
| 20260502190144 | 61 | 212 | 4.0 | 12.0 | 0.00 | 0.00 | 0.00 | 77 | 1012.6 |
| 20260502190044 | 61 | 228 | 4.0 | 12.0 | 0.00 | 0.00 | 0.00 | 77 | 1012.7 |
| 20260502185944 | 61 | 242 | 4.0 | 12.0 | 0.00 | 0.00 | 0.00 | 77 | 1012.7 |
| 20260502185844 | 61 | 219 | 3.0 | 10.0 | 0.00 | 0.00 | 0.00 | 77 | 1012.7 |
| 20260502185759 | 61 | 236 | 3.0 | 10.0 | 0.00 | 0.00 | 0.00 | 77 | 1012.7 |
| 20260502185743 | 61 | 215 | 3.0 | 10.0 | 0.00 | 0.00 | 0.00 | 77 | 1012.8 |
| 20260502185644 | 61 | 226 | 3.0 | 10.0 | 0.00 | 0.00 | 0.00 | 77 | 1012.7 |
| 20260502185544 | 61 | 256 | 3.0 | 10.0 | 0.00 | 0.00 | 0.00 | 78 | 1012.7 |
| 20260502185444 | 61 | 236 | 3.0 | 11.0 | 0.00 | 0.00 | 0.00 | 78 | 1012.7 |
| 20260502185344 | 61 | 230 | 3.0 | 11.0 | 0.00 | 0.00 | 0.00 | 78 | 1012.7 |
| 20260502185258 | 61 | 259 | 3.0 | 11.0 | 0.00 | 0.00 | 0.00 | 78 | 1012.7 |
| 20260502185244 | 61 | 281 | 3.0 | 11.0 | 0.00 | 0.00 | 0.00 | 79 | 1012.7 |
| 20260502185144 | 61 | 283 | 3.0 | 11.0 | 0.00 | 0.00 | 0.00 | 79 | 1012.7 |
| 20260502185044 | 61 | 217 | 3.0 | 12.0 | 0.00 | 0.00 | 0.00 | 78 | 1012.8 |
| 20260502184945 | 61 | 253 | 3.0 | 12.0 | 0.00 | 0.00 | 0.00 | 79 | 1012.7 |
| 20260502184844 | 61 | 236 | 4.0 | 12.0 | 0.00 | 0.00 | 0.00 | 79 | 1012.7 |
| 20260502184759 | 61 | 204 | 4.0 | 12.0 | 0.00 | 0.00 | 0.00 | 79 | 1012.7 |
| 20260502184744 | 61 | 262 | 4.0 | 12.0 | 0.00 | 0.00 | 0.00 | 80 | 1012.7 |
| 20260502184644 | 61 | 215 | 4.0 | 12.0 | 0.00 | 0.00 | 0.00 | 79 | 1012.7 |
| 20260502184545 | 60 | 256 | 4.0 | 12.0 | 0.00 | 0.00 | 0.00 | 79 | 1012.7 |
| 20260502184440 | 60 | 245 | 4.0 | 12.0 | 0.00 | 0.00 | 0.00 | 80 | 1012.7 |
| 20260502184341 | 60 | 264 | 4.0 | 12.0 | 0.00 | 0.00 | 0.00 | 80 | 1012.6 |
| 20260502184258 | 60 | 243 | 4.0 | 12.0 | 0.00 | 0.00 | 0.00 | 80 | 1012.6 |
| 20260502184240 | 60 | 243 | 5.0 | 12.0 | 0.00 | 0.00 | 0.00 | 80 | 1012.6 |
| 20260502184140 | 60 | 245 | 4.0 | 12.0 | 0.00 | 0.00 | 0.00 | 80 | 1012.7 |
| 20260502184040 | 60 | 239 | 5.0 | 12.0 | 0.00 | 0.00 | 0.00 | 80 | 1012.6 |
| 20260502183941 | 60 | 266 | 5.0 | 13.0 | 0.00 | 0.00 | 0.00 | 80 | 1012.7 |
| 20260502183838 | 60 | 238 | 5.0 | 13.0 | 0.00 | 0.00 | 0.00 | 80 | 1012.7 |
| 20260502183757 | 60 | 250 | 5.0 | 13.0 | 0.00 | 0.00 | 0.00 | 80 | 1012.7 |
| 20260502183738 | 60 | 236 | 5.0 | 13.0 | 0.00 | 0.00 | 0.00 | 80 | 1012.7 |
| 20260502183638 | 60 | 278 | 5.0 | 13.0 | 0.00 | 0.00 | 0.00 | 81 | 1012.7 |
| 20260502183538 | 60 | 225 | 5.0 | 13.0 | 0.00 | 0.00 | 0.00 | 81 | 1012.7 |
| 20260502183518 | 60 | 248 | 4.0 | 13.0 | 0.00 | 0.00 | 0.00 | 80 | 1012.8 |
| 20260502183437 | 60 | 215 | 5.0 | 13.0 | 0.00 | 0.00 | 0.00 | 81 | 1012.8 |
| 20260502183409 | 60 | 238 | 4.0 | 13.0 | 0.00 | 0.00 | 0.00 | 81 | 1012.8 |
| 20260502183236 | 60 | 228 | 4.0 | 13.0 | 0.00 | 0.00 | 0.00 | 80 | 1012.7 |
| 20260502183136 | 60 | 246 | 4.0 | 13.0 | 0.00 | 0.00 | 0.00 | 81 | 1012.7 |
| 20260502183035 | 60 | 238 | 4.0 | 13.0 | 0.00 | 0.00 | 0.00 | 80 | 1012.7 |
| 20260502182936 | 60 | 233 | 4.0 | 13.0 | 0.00 | 0.00 | 0.00 | 81 | 1012.7 |
| 20260502182836 | 60 | 181 | 4.0 | 13.0 | 0.00 | 0.00 | 0.00 | 81 | 1012.7 |
| 20260502182801 | 60 | 229 | 4.0 | 13.0 | 0.00 | 0.00 | 0.00 | 81 | 1012.7 |
| 20260502182736 | 59 | 232 | 4.0 | 13.0 | 0.00 | 0.00 | 0.00 | 81 | 1012.7 |
| 20260502182636 | 59 | 248 | 4.0 | 13.0 | 0.00 | 0.00 | 0.00 | 81 | 1012.7 |
| 20260502182536 | 59 | 219 | 4.0 | 13.0 | 0.00 | 0.00 | 0.00 | 80 | 1012.8 |
| 20260502182436 | 59 | 253 | 4.0 | 13.0 | 0.00 | 0.00 | 0.00 | 80 | 1012.7 |
| 20260502182334 | 59 | 269 | 5.0 | 13.0 | 0.00 | 0.00 | 0.00 | 81 | 1012.8 |
| 20260502182259 | 59 | 214 | 5.0 | 13.0 | 0.00 | 0.00 | 0.00 | 81 | 1012.8 |
| 20260502182234 | 59 | 283 | 5.0 | 13.0 | 0.00 | 0.00 | 0.00 | 80 | 1012.8 |
| 20260502182134 | 59 | 263 | 5.0 | 13.0 | 0.00 | 0.00 | 0.00 | 80 | 1012.8 |
| 20260502182028 | 59 | 246 | 5.0 | 13.0 | 0.00 | 0.00 | 0.00 | 80 | 1012.8 |
| 20260502181928 | 60 | 203 | 4.0 | 13.0 | 0.00 | 0.00 | 0.00 | 80 | 1012.8 |
| 20260502181828 | 60 | 242 | 5.0 | 11.0 | 0.00 | 0.00 | 0.00 | 80 | 1012.8 |
| 20260502181758 | 60 | 288 | 5.0 | 11.0 | 0.00 | 0.00 | 0.00 | 80 | 1012.8 |
| 20260502181728 | 60 | 256 | 5.0 | 12.0 | 0.00 | 0.00 | 0.00 | 80 | 1012.7 |
| 20260502181628 | 60 | 236 | 5.0 | 12.0 | 0.00 | 0.00 | 0.00 | 80 | 1012.7 |
| 20260502181528 | 60 | 240 | 5.0 | 12.0 | 0.00 | 0.00 | 0.00 | 80 | 1012.7 |
| 20260502181429 | 60 | 235 | 5.0 | 12.0 | 0.00 | 0.00 | 0.00 | 80 | 1012.7 |
| 20260502181256 | 60 | 253 | 4.0 | 12.0 | 0.00 | 0.00 | 0.00 | 79 | 1012.7 |
| 20260502181229 | 60 | 214 | 4.0 | 12.0 | 0.00 | 0.00 | 0.00 | 79 | 1012.7 |
| 20260502181128 | 60 | 255 | 4.0 | 12.0 | 0.00 | 0.00 | 0.00 | 79 | 1012.7 |
| 20260502181028 | 60 | 238 | 4.0 | 12.0 | 0.00 | 0.00 | 0.00 | 79 | 1012.7 |
| 20260502180928 | 60 | 212 | 4.0 | 12.0 | 0.00 | 0.00 | 0.00 | 79 | 1012.7 |
| 20260502180828 | 60 | 193 | 3.0 | 12.0 | 0.00 | 0.00 | 0.00 | 78 | 1012.6 |
| 20260502180756 | 60 | 241 | 3.0 | 12.0 | 0.00 | 0.00 | 0.00 | 79 | 1012.6 |
| 20260502180728 | 60 | 155 | 3.0 | 10.0 | 0.00 | 0.00 | 0.00 | 79 | 1012.5 |
| 20260502180626 | 60 | 224 | 3.0 | 10.0 | 0.00 | 0.00 | 0.00 | 78 | 1012.5 |
| 20260502180526 | 60 | 215 | 3.0 | 10.0 | 0.00 | 0.00 | 0.00 | 78 | 1012.5 |
| 20260502180426 | 60 | 241 | 3.0 | 10.0 | 0.00 | 0.00 | 0.00 | 78 | 1012.5 |
| 20260502180326 | 60 | 248 | 3.0 | 10.0 | 0.00 | 0.00 | 0.00 | 78 | 1012.6 |
| 20260502180255 | 61 | 222 | 3.0 | 10.0 | 0.00 | 0.00 | 0.00 | 78 | 1012.6 |
| 20260502180228 | 61 | 240 | 3.0 | 10.0 | 0.00 | 0.00 | 0.00 | 79 | 1012.6 |
| 20260502180126 | 61 | 235 | 3.0 | 10.0 | 0.00 | 0.00 | 0.00 | 78 | 1012.6 |
| 20260502170515 | 59 | 170 | 3.0 | 12.0 | 0.00 | 0.00 | 0.00 | 81 | 1012.5 |
| 20260502170503 | 59 | 221 | 3.0 | 12.0 | 0.00 | 0.00 | 0.00 | 81 | 1012.5 |
| 20260502170415 | 59 | 296 | 4.0 | 12.0 | 0.00 | 0.00 | 0.00 | 81 | 1012.6 |
| 20260502170407 | 59 | 214 | 3.0 | 12.0 | 0.00 | 0.00 | 0.00 | 81 | 1012.5 |
| 20260502170202 | 59 | 264 | 3.0 | 12.0 | 0.00 | 0.00 | 0.00 | 80 | 1012.5 |
| 20260502164241 | 60 | 245 | 2.0 | 10.0 | 0.00 | 0.00 | 0.00 | 80 | 1012.4 |
| 20260502164138 | 60 | 242 | 2.0 | 10.0 | 0.00 | 0.00 | 0.00 | 80 | 1012.4 |
| 20260502164123 | 60 | 229 | 3.0 | 10.0 | 0.00 | 0.00 | 0.00 | 80 | 1012.4 |
| 20260502163938 | 60 | 223 | 3.0 | 12.0 | 0.00 | 0.00 | 0.00 | 80 | 1012.5 |
| 20260502163907 | 60 | 245 | 3.0 | 12.0 | 0.00 | 0.00 | 0.00 | 81 | 1012.5 |
| 20260502163734 | 60 | 226 | 4.0 | 12.0 | 0.00 | 0.00 | 0.00 | 81 | 1012.4 |
| 20260502163632 | 60 | 250 | 4.0 | 12.0 | 0.00 | 0.00 | 0.00 | 81 | 1012.5 |
| 20260502163532 | 60 | 251 | 4.0 | 12.0 | 0.00 | 0.00 | 0.00 | 81 | 1012.4 |
| 20260502163430 | 60 | 267 | 4.0 | 12.0 | 0.00 | 0.00 | 0.00 | 80 | 1012.4 |
| 20260502163331 | 60 | 238 | 4.0 | 12.0 | 0.00 | 0.00 | 0.00 | 80 | 1012.4 |
| 20260502163257 | 60 | 217 | 4.0 | 12.0 | 0.00 | 0.00 | 0.00 | 80 | 1012.4 |
| 20260502163229 | 60 | 262 | 4.0 | 12.0 | 0.00 | 0.00 | 0.00 | 79 | 1012.3 |
| 20260502163128 | 60 | 218 | 4.0 | 12.0 | 0.00 | 0.00 | 0.00 | 79 | 1012.3 |
| 20260502163028 | 60 | 176 | 3.0 | 12.0 | 0.00 | 0.00 | 0.00 | 79 | 1012.3 |
| 20260502162927 | 60 | 245 | 3.0 | 8.0 | 0.00 | 0.00 | 0.00 | 79 | 1012.3 |
| 20260502162828 | 60 | 294 | 3.0 | 8.0 | 0.00 | 0.00 | 0.00 | 79 | 1012.3 |
| 20260502162756 | 60 | 230 | 3.0 | 8.0 | 0.00 | 0.00 | 0.00 | 79 | 1012.3 |
| 20260502162716 | 60 | 205 | 3.0 | 8.0 | 0.00 | 0.00 | 0.00 | 79 | 1012.3 |
| 20260502162616 | 60 | 226 | 3.0 | 8.0 | 0.00 | 0.00 | 0.00 | 79 | 1012.3 |
| 20260502162516 | 60 | 255 | 3.0 | 8.0 | 0.00 | 0.00 | 0.00 | 79 | 1012.3 |
| 20260502162416 | 60 | 229 | 4.0 | 9.0 | 0.00 | 0.00 | 0.00 | 79 | 1012.3 |
| 20260502162316 | 60 | 259 | 4.0 | 9.0 | 0.00 | 0.00 | 0.00 | 80 | 1012.3 |
| 20260502162255 | 60 | 236 | 4.0 | 9.0 | 0.00 | 0.00 | 0.00 | 80 | 1012.3 |
| 20260502162216 | 60 | 232 | 4.0 | 9.0 | 0.00 | 0.00 | 0.00 | 80 | 1012.3 |
| 20260502162116 | 60 | 235 | 4.0 | 9.0 | 0.00 | 0.00 | 0.00 | 80 | 1012.3 |
| 20260502162016 | 60 | 242 | 4.0 | 11.0 | 0.00 | 0.00 | 0.00 | 80 | 1012.3 |
| 20260502161916 | 60 | 172 | 4.0 | 11.0 | 0.00 | 0.00 | 0.00 | 80 | 1012.3 |
| 20260502161817 | 60 | 253 | 4.0 | 11.0 | 0.00 | 0.00 | 0.00 | 80 | 1012.3 |
| 20260502161757 | 60 | 182 | 4.0 | 11.0 | 0.00 | 0.00 | 0.00 | 80 | 1012.3 |
| 20260502161716 | 60 | 248 | 4.0 | 11.0 | 0.00 | 0.00 | 0.00 | 80 | 1012.3 |
| 20260502161617 | 60 | 210 | 4.0 | 11.0 | 0.00 | 0.00 | 0.00 | 79 | 1012.3 |
| 20260502161516 | 60 | 292 | 4.0 | 11.0 | 0.00 | 0.00 | 0.00 | 79 | 1012.3 |
| 20260502161416 | 60 | 248 | 4.0 | 11.0 | 0.00 | 0.00 | 0.00 | 80 | 1012.3 |
| 20260502161316 | 60 | 226 | 4.0 | 11.0 | 0.00 | 0.00 | 0.00 | 80 | 1012.3 |
| 20260502161258 | 60 | 236 | 4.0 | 11.0 | 0.00 | 0.00 | 0.00 | 80 | 1012.3 |
| 20260502161217 | 60 | 214 | 4.0 | 11.0 | 0.00 | 0.00 | 0.00 | 80 | 1012.3 |
| 20260502161116 | 60 | 259 | 4.0 | 11.0 | 0.00 | 0.00 | 0.00 | 79 | 1012.4 |
| 20260502161010 | 60 | 210 | 3.0 | 8.0 | 0.00 | 0.00 | 0.00 | 80 | 1012.3 |
| 20260502160910 | 60 | 241 | 3.0 | 8.0 | 0.00 | 0.00 | 0.00 | 79 | 1012.3 |
| 20260502160810 | 60 | 226 | 3.0 | 8.0 | 0.00 | 0.00 | 0.00 | 79 | 1012.2 |
| 20260502160749 | 60 | 228 | 3.0 | 8.0 | 0.00 | 0.00 | 0.00 | 79 | 1012.2 |
| 20260502160710 | 60 | 249 | 3.0 | 8.0 | 0.00 | 0.00 | 0.00 | 79 | 1012.2 |
| 20260502160610 | 60 | 219 | 3.0 | 8.0 | 0.00 | 0.00 | 0.00 | 79 | 1012.2 |
| 20260502160505 | 60 | 252 | 3.0 | 8.0 | 0.00 | 0.00 | 0.00 | 79 | 1012.3 |
| 20260502160404 | 60 | 232 | 3.0 | 8.0 | 0.00 | 0.00 | 0.00 | 79 | 1012.3 |
| 20260502160304 | 60 | 280 | 3.0 | 8.0 | 0.00 | 0.00 | 0.00 | 79 | 1012.3 |
| 20260502160245 | 60 | 210 | 2.0 | 8.0 | 0.00 | 0.00 | 0.00 | 80 | 1012.3 |
| 20260502160204 | 60 | 240 | 2.0 | 8.0 | 0.00 | 0.00 | 0.00 | 80 | 1012.3 |
| 20260502160104 | 60 | 229 | 2.0 | 8.0 | 0.00 | 0.00 | 0.00 | 80 | 1012.3 |
| 20260502152316 | 57 | 198 | 3.0 | 8.0 | 0.00 | 0.00 | 0.00 | 86 | 1011.9 |
| 20260502152234 | 57 | 219 | 3.0 | 8.0 | 0.00 | 0.00 | 0.00 | 86 | 1011.9 |
| 20260502152216 | 57 | 233 | 3.0 | 8.0 | 0.00 | 0.00 | 0.00 | 86 | 1011.9 |
| 20260502152115 | 57 | 228 | 4.0 | 8.0 | 0.00 | 0.00 | 0.00 | 86 | 1011.9 |
| 20260502152015 | 57 | 240 | 4.0 | 8.0 | 0.00 | 0.00 | 0.00 | 86 | 1011.9 |
| 20260502151953 | 57 | 233 | 3.0 | 7.0 | 0.00 | 0.00 | 0.00 | 86 | 1012.0 |
| 20260502151914 | 57 | 259 | 3.0 | 8.0 | 0.00 | 0.00 | 0.00 | 86 | 1012.0 |
| 20260502151843 | 57 | 289 | 3.0 | 8.0 | 0.00 | 0.00 | 0.00 | 86 | 1012.0 |
| 20260502151712 | 57 | 248 | 3.0 | 7.0 | 0.00 | 0.00 | 0.00 | 86 | 1012.0 |
| 20260502151612 | 57 | 224 | 3.0 | 10.0 | 0.00 | 0.00 | 0.00 | 86 | 1012.0 |
| 20260502151512 | 57 | 184 | 4.0 | 10.0 | 0.00 | 0.00 | 0.00 | 86 | 1012.0 |
| 20260502151413 | 56 | 245 | 3.0 | 10.0 | 0.00 | 0.00 | 0.00 | 86 | 1012.0 |
| 20260502151312 | 56 | 235 | 3.0 | 10.0 | 0.00 | 0.00 | 0.00 | 86 | 1012.0 |
| 20260502151232 | 56 | 228 | 3.0 | 10.0 | 0.00 | 0.00 | 0.00 | 86 | 1012.0 |
| 20260502151212 | 56 | 225 | 3.0 | 10.0 | 0.00 | 0.00 | 0.00 | 86 | 1012.0 |
| 20260502151112 | 56 | 236 | 3.0 | 10.0 | 0.00 | 0.00 | 0.00 | 86 | 1012.0 |
| 20260502151012 | 56 | 238 | 3.0 | 10.0 | 0.00 | 0.00 | 0.00 | 86 | 1012.0 |
| 20260502150951 | 56 | 236 | 3.0 | 10.0 | 0.00 | 0.00 | 0.00 | 86 | 1012.0 |
| 20260502150913 | 56 | 200 | 3.0 | 10.0 | 0.00 | 0.00 | 0.00 | 86 | 1012.0 |
| 20260502150842 | 56 | 177 | 3.0 | 10.0 | 0.00 | 0.00 | 0.00 | 86 | 1012.0 |
| 20260502150706 | 56 | 232 | 3.0 | 10.0 | 0.00 | 0.00 | 0.00 | 86 | 1012.0 |
| 20260502150605 | 56 | 188 | 3.0 | 8.0 | 0.00 | 0.00 | 0.00 | 87 | 1011.9 |
| 20260502150506 | 56 | 148 | 3.0 | 8.0 | 0.00 | 0.00 | 0.00 | 86 | 1011.9 |
| 20260502150406 | 56 | 233 | 3.0 | 8.0 | 0.00 | 0.00 | 0.00 | 86 | 1012.0 |
| 20260502150306 | 56 | 252 | 3.0 | 8.0 | 0.00 | 0.00 | 0.00 | 86 | 1011.9 |
| 20260502150231 | 56 | 252 | 2.0 | 8.0 | 0.00 | 0.00 | 0.00 | 86 | 1012.0 |
| 20260502150200 | 56 | 236 | 2.0 | 8.0 | 0.00 | 0.00 | 0.00 | 86 | 1012.0 |
| 20260502140107 | 54 | 240 | 2.0 | 10.0 | 0.00 | 0.00 | 0.00 | 88 | 1011.5 |
| 20260502130738 | 53 | 239 | 2.0 | 8.0 | 0.00 | 0.00 | 0.00 | 90 | 1011.0 |
| 20260502130727 | 53 | 219 | 2.0 | 8.0 | 0.00 | 0.00 | 0.00 | 90 | 1011.0 |
| 20260502130628 | 53 | 223 | 3.0 | 8.0 | 0.00 | 0.00 | 0.00 | 90 | 1010.9 |
| 20260502130526 | 53 | 231 | 3.0 | 8.0 | 0.00 | 0.00 | 0.00 | 90 | 1011.0 |
| 20260502130422 | 53 | 236 | 3.0 | 8.0 | 0.00 | 0.00 | 0.00 | 90 | 1011.0 |
| 20260502130320 | 53 | 235 | 2.0 | 8.0 | 0.00 | 0.00 | 0.00 | 90 | 1011.0 |
| 20260502130220 | 53 | 191 | 2.0 | 8.0 | 0.00 | 0.00 | 0.00 | 90 | 1011.0 |
| 20260502130200 | 53 | 250 | 2.0 | 8.0 | 0.00 | 0.00 | 0.00 | 90 | 1011.0 |
| 20260502130120 | 53 | 236 | 2.0 | 8.0 | 0.00 | 0.00 | 0.00 | 90 | 1011.0 |
| 20260502123806 | 53 | 200 | 1.0 | 4.0 | 0.00 | 0.00 | 0.00 | 91 | 1010.9 |
| 20260502123706 | 53 | 162 | 1.0 | 4.0 | 0.00 | 0.00 | 0.00 | 91 | 1010.9 |
| 20260502123630 | 53 | 200 | 1.0 | 4.0 | 0.00 | 0.00 | 0.00 | 91 | 1010.9 |
| 20260502123604 | 53 | 235 | 1.0 | 4.0 | 0.00 | 0.00 | 0.00 | 91 | 1010.9 |
| 20260502123504 | 53 | 232 | 2.0 | 4.0 | 0.00 | 0.00 | 0.00 | 91 | 1010.9 |
| 20260502123405 | 53 | 195 | 1.0 | 4.0 | 0.00 | 0.00 | 0.00 | 91 | 1010.9 |
| 20260502123304 | 53 | 231 | 1.0 | 4.0 | 0.00 | 0.00 | 0.00 | 91 | 1010.9 |
| 20260502123200 | 53 | 226 | 2.0 | 5.0 | 0.00 | 0.00 | 0.00 | 91 | 1010.8 |
| 20260502123126 | 53 | 228 | 2.0 | 5.0 | 0.00 | 0.00 | 0.00 | 91 | 1010.8 |
| 20260502123058 | 53 | 235 | 2.0 | 5.0 | 0.00 | 0.00 | 0.00 | 91 | 1010.8 |
| 20260502122958 | 53 | 203 | 2.0 | 5.0 | 0.00 | 0.00 | 0.00 | 91 | 1010.8 |
| 20260502122856 | 53 | 200 | 1.0 | 5.0 | 0.00 | 0.00 | 0.00 | 91 | 1010.8 |
| 20260502122756 | 53 | 236 | 1.0 | 5.0 | 0.00 | 0.00 | 0.00 | 91 | 1010.8 |
| 20260502122652 | 53 | 221 | 2.0 | 5.0 | 0.00 | 0.00 | 0.00 | 91 | 1010.8 |
| 20260502122626 | 53 | 217 | 1.0 | 5.0 | 0.00 | 0.00 | 0.00 | 91 | 1010.8 |
| 20260502122551 | 53 | 212 | 1.0 | 5.0 | 0.00 | 0.00 | 0.00 | 91 | 1010.8 |
| 20260502122450 | 53 | 225 | 1.0 | 5.0 | 0.00 | 0.00 | 0.00 | 91 | 1010.8 |
| 20260502122350 | 53 | 232 | 1.0 | 5.0 | 0.00 | 0.00 | 0.00 | 91 | 1010.8 |
| 20260502122248 | 53 | 187 | 1.0 | 5.0 | 0.00 | 0.00 | 0.00 | 91 | 1010.8 |
| 20260502122146 | 53 | 217 | 1.0 | 6.0 | 0.00 | 0.00 | 0.00 | 91 | 1010.8 |
| 20260502122126 | 53 | 150 | 1.0 | 6.0 | 0.00 | 0.00 | 0.00 | 91 | 1010.8 |
| 20260502122042 | 53 | 158 | 2.0 | 6.0 | 0.00 | 0.00 | 0.00 | 91 | 1010.8 |
| 20260502121942 | 53 | 158 | 2.0 | 6.0 | 0.00 | 0.00 | 0.00 | 91 | 1010.8 |
| 20260502121842 | 53 | 221 | 2.0 | 6.0 | 0.00 | 0.00 | 0.00 | 91 | 1010.7 |
| 20260502121742 | 53 | 217 | 2.0 | 6.0 | 0.00 | 0.00 | 0.00 | 91 | 1010.8 |
| 20260502121623 | 53 | 221 | 2.0 | 6.0 | 0.00 | 0.00 | 0.00 | 91 | 1010.7 |
| 20260502121540 | 53 | 221 | 2.0 | 6.0 | 0.00 | 0.00 | 0.00 | 91 | 1010.8 |
| 20260502121440 | 53 | 231 | 2.0 | 6.0 | 0.00 | 0.00 | 0.00 | 91 | 1010.7 |
| 20260502121338 | 53 | 214 | 2.0 | 6.0 | 0.00 | 0.00 | 0.00 | 91 | 1010.7 |
| 20260502121235 | 53 | 216 | 1.0 | 6.0 | 0.00 | 0.00 | 0.00 | 91 | 1010.8 |
| 20260502121146 | 53 | 243 | 1.0 | 4.0 | 0.00 | 0.00 | 0.00 | 91 | 1010.8 |
| 20260502121135 | 53 | 245 | 1.0 | 4.0 | 0.00 | 0.00 | 0.00 | 91 | 1010.8 |
| 20260502121030 | 53 | 226 | 1.0 | 4.0 | 0.00 | 0.00 | 0.00 | 91 | 1010.7 |
| 20260502120930 | 53 | 166 | 1.0 | 4.0 | 0.00 | 0.00 | 0.00 | 91 | 1010.7 |
| 20260502120830 | 53 | 207 | 1.0 | 4.0 | 0.00 | 0.00 | 0.00 | 91 | 1010.8 |
| 20260502120728 | 53 | 214 | 1.0 | 4.0 | 0.00 | 0.00 | 0.00 | 91 | 1010.8 |
| 20260502120624 | 53 | 207 | 1.0 | 4.0 | 0.00 | 0.00 | 0.00 | 91 | 1010.8 |
| 20260502120522 | 53 | 205 | 1.0 | 4.0 | 0.00 | 0.00 | 0.00 | 91 | 1010.8 |
| 20260502120422 | 53 | 205 | 1.0 | 4.0 | 0.00 | 0.00 | 0.00 | 91 | 1010.8 |
| 20260502120322 | 53 | 222 | 0.0 | 4.0 | 0.00 | 0.00 | 0.00 | 91 | 1010.7 |
| 20260502120223 | 53 | 221 | 0.0 | 2.0 | 0.00 | 0.00 | 0.00 | 91 | 1010.7 |
| 20260502120126 | 53 | 215 | 1.0 | 3.0 | 0.00 | 0.00 | 0.00 | 91 | 1010.8 |
| 20260502115920 | 53 | 192 | 0.0 | 5.0 | 0.00 | 0.00 | 0.00 | 91 | 1010.9 |
| 20260502115820 | 53 | 193 | 0.0 | 5.0 | 0.00 | 0.00 | 0.00 | 91 | 1010.9 |
| 20260502115752 | 53 | 193 | 0.0 | 5.0 | 0.00 | 0.00 | 0.00 | 91 | 1010.8 |
| 20260502115720 | 53 | 193 | 0.0 | 5.0 | 0.00 | 0.00 | 0.00 | 91 | 1010.8 |
| 20260502115620 | 53 | 195 | 0.0 | 5.0 | 0.00 | 0.00 | 0.00 | 91 | 1010.8 |
| 20260502115518 | 53 | 207 | 1.0 | 5.0 | 0.00 | 0.00 | 0.00 | 91 | 1010.8 |
| 20260502115418 | 53 | 207 | 1.0 | 5.0 | 0.00 | 0.00 | 0.00 | 91 | 1010.8 |
| 20260502115318 | 53 | 207 | 1.0 | 5.0 | 0.00 | 0.00 | 0.00 | 91 | 1010.8 |
| 20260502115218 | 53 | 207 | 1.0 | 5.0 | 0.00 | 0.00 | 0.00 | 91 | 1010.8 |
| 20260502115122 | 53 | 205 | 0.0 | 5.0 | 0.00 | 0.00 | 0.00 | 91 | 1010.8 |
| 20260502115115 | 53 | 239 | 0.0 | 5.0 | 0.00 | 0.00 | 0.00 | 91 | 1010.8 |
| 20260502115016 | 53 | 167 | 1.0 | 3.0 | 0.00 | 0.00 | 0.00 | 91 | 1010.8 |
| 20260502114912 | 53 | 167 | 1.0 | 3.0 | 0.00 | 0.00 | 0.00 | 91 | 1010.9 |
| 20260502114812 | 53 | 168 | 1.0 | 4.0 | 0.00 | 0.00 | 0.00 | 91 | 1010.9 |
| 20260502114712 | 53 | 154 | 1.0 | 4.0 | 0.00 | 0.00 | 0.00 | 91 | 1010.9 |
| 20260502114612 | 53 | 229 | 1.0 | 4.0 | 0.00 | 0.00 | 0.00 | 91 | 1010.9 |
| 20260502114512 | 53 | 229 | 1.0 | 4.0 | 0.00 | 0.00 | 0.00 | 91 | 1010.8 |
| 20260502114412 | 53 | 195 | 1.0 | 4.0 | 0.00 | 0.00 | 0.00 | 91 | 1010.9 |
| 20260502114311 | 53 | 195 | 1.0 | 4.0 | 0.00 | 0.00 | 0.00 | 91 | 1010.9 |
| 20260502114210 | 53 | 184 | 1.0 | 4.0 | 0.00 | 0.00 | 0.00 | 91 | 1010.8 |
| 20260502114121 | 53 | 215 | 1.0 | 4.0 | 0.00 | 0.00 | 0.00 | 91 | 1010.9 |
| 20260502114110 | 53 | 216 | 1.0 | 4.0 | 0.00 | 0.00 | 0.00 | 91 | 1010.9 |
| 20260502113911 | 53 | 136 | 1.0 | 4.0 | 0.00 | 0.00 | 0.00 | 91 | 1010.9 |
| 20260502113811 | 53 | 200 | 1.0 | 3.0 | 0.00 | 0.00 | 0.00 | 91 | 1010.9 |
| 20260502113708 | 53 | 207 | 1.0 | 6.0 | 0.00 | 0.00 | 0.00 | 91 | 1010.9 |
| 20260502113618 | 53 | 191 | 1.0 | 6.0 | 0.00 | 0.00 | 0.00 | 91 | 1010.9 |
| 20260502113508 | 53 | 226 | 1.0 | 6.0 | 0.00 | 0.00 | 0.00 | 91 | 1010.9 |
| 20260502113408 | 53 | 226 | 1.0 | 6.0 | 0.00 | 0.00 | 0.00 | 91 | 1010.9 |
| 20260502113307 | 53 | 229 | 1.0 | 6.0 | 0.00 | 0.00 | 0.00 | 91 | 1010.9 |
| 20260502113208 | 53 | 229 | 2.0 | 6.0 | 0.00 | 0.00 | 0.00 | 91 | 1011.0 |
| 20260502113119 | 53 | 229 | 2.0 | 6.0 | 0.00 | 0.00 | 0.00 | 91 | 1011.0 |
| 20260502113106 | 53 | 230 | 2.0 | 6.0 | 0.00 | 0.00 | 0.00 | 91 | 1011.0 |
| 20260502113006 | 53 | 229 | 2.0 | 6.0 | 0.00 | 0.00 | 0.00 | 91 | 1010.9 |
| 20260502112906 | 53 | 228 | 2.0 | 6.0 | 0.00 | 0.00 | 0.00 | 91 | 1011.0 |
| 20260502112806 | 53 | 221 | 2.0 | 6.0 | 0.00 | 0.00 | 0.00 | 91 | 1011.0 |
| 20260502112706 | 53 | 144 | 1.0 | 3.0 | 0.00 | 0.00 | 0.00 | 91 | 1011.1 |
| 20260502112619 | 53 | 203 | 1.0 | 3.0 | 0.00 | 0.00 | 0.00 | 91 | 1011.1 |
| 20260502112607 | 53 | 200 | 1.0 | 3.0 | 0.00 | 0.00 | 0.00 | 91 | 1011.1 |
| 20260502112501 | 53 | 226 | 1.0 | 3.0 | 0.00 | 0.00 | 0.00 | 91 | 1011.1 |
| 20260502112400 | 53 | 214 | 1.0 | 3.0 | 0.00 | 0.00 | 0.00 | 91 | 1011.0 |
| 20260502112300 | 53 | 146 | 1.0 | 6.0 | 0.00 | 0.00 | 0.00 | 91 | 1011.1 |
| 20260502112201 | 53 | 161 | 1.0 | 6.0 | 0.00 | 0.00 | 0.00 | 91 | 1011.0 |
| 20260502112117 | 53 | 221 | 1.0 | 6.0 | 0.00 | 0.00 | 0.00 | 91 | 1011.1 |
| 20260502112100 | 53 | 221 | 1.0 | 6.0 | 0.00 | 0.00 | 0.00 | 91 | 1011.1 |
| 20260502112000 | 53 | 217 | 1.0 | 6.0 | 0.00 | 0.00 | 0.00 | 91 | 1011.1 |
| 20260502111900 | 53 | 144 | 1.0 | 6.0 | 0.00 | 0.00 | 0.00 | 91 | 1011.0 |
| 20260502111800 | 53 | 217 | 1.0 | 6.0 | 0.00 | 0.00 | 0.00 | 91 | 1011.1 |
| 20260502111701 | 53 | 215 | 1.0 | 6.0 | 0.00 | 0.00 | 0.00 | 91 | 1011.1 |
| 20260502111615 | 53 | 228 | 1.0 | 6.0 | 0.00 | 0.00 | 0.00 | 90 | 1011.1 |
| 20260502111600 | 53 | 228 | 1.0 | 6.0 | 0.00 | 0.00 | 0.00 | 90 | 1011.1 |
| 20260502111500 | 54 | 248 | 2.0 | 6.0 | 0.00 | 0.00 | 0.00 | 90 | 1011.1 |
| 20260502111400 | 54 | 248 | 2.0 | 6.0 | 0.00 | 0.00 | 0.00 | 91 | 1011.0 |
| 20260502111259 | 54 | 246 | 2.0 | 5.0 | 0.00 | 0.00 | 0.00 | 90 | 1011.0 |
| 20260502111200 | 54 | 177 | 2.0 | 5.0 | 0.00 | 0.00 | 0.00 | 90 | 1011.0 |
| 20260502111117 | 54 | 203 | 2.0 | 5.0 | 0.00 | 0.00 | 0.00 | 90 | 1011.0 |
| 20260502111100 | 54 | 203 | 2.0 | 5.0 | 0.00 | 0.00 | 0.00 | 90 | 1011.0 |
| 20260502111001 | 54 | 214 | 1.0 | 5.0 | 0.00 | 0.00 | 0.00 | 90 | 1011.0 |
| 20260502110901 | 54 | 223 | 1.0 | 5.0 | 0.00 | 0.00 | 0.00 | 90 | 1011.0 |
| 20260502110758 | 54 | 200 | 1.0 | 6.0 | 0.00 | 0.00 | 0.00 | 90 | 1011.0 |
| 20260502110658 | 54 | 204 | 1.0 | 6.0 | 0.00 | 0.00 | 0.00 | 90 | 1011.0 |
| 20260502110616 | 54 | 215 | 1.0 | 6.0 | 0.00 | 0.00 | 0.00 | 90 | 1011.0 |
| 20260502110559 | 54 | 216 | 1.0 | 6.0 | 0.00 | 0.00 | 0.00 | 90 | 1011.0 |
| 20260502110458 | 54 | 226 | 1.0 | 6.0 | 0.00 | 0.00 | 0.00 | 90 | 1011.0 |
| 20260502110358 | 54 | 226 | 1.0 | 6.0 | 0.00 | 0.00 | 0.00 | 90 | 1011.0 |
| 20260502110258 | 54 | 214 | 1.0 | 6.0 | 0.00 | 0.00 | 0.00 | 90 | 1011.1 |
| 20260502110158 | 54 | 198 | 1.0 | 6.0 | 0.00 | 0.00 | 0.00 | 90 | 1011.0 |
| 20260502110115 | 54 | 195 | 1.0 | 6.0 | 0.00 | 0.00 | 0.00 | 90 | 1011.0 |
| 20260502110058 | 54 | 195 | 1.0 | 6.0 | 0.00 | 0.00 | 0.00 | 90 | 1011.0 |
| 20260502105958 | 54 | 228 | 1.0 | 6.0 | 0.00 | 0.00 | 0.00 | 90 | 1011.0 |
| 20260502105858 | 54 | 226 | 2.0 | 6.0 | 0.00 | 0.00 | 0.00 | 90 | 1011.0 |
| 20260502105758 | 54 | 170 | 2.0 | 5.0 | 0.00 | 0.00 | 0.00 | 90 | 1011.0 |
| 20260502105658 | 54 | 193 | 2.0 | 5.0 | 0.00 | 0.00 | 0.00 | 90 | 1011.0 |
| 20260502105617 | 54 | 183 | 2.0 | 5.0 | 0.00 | 0.00 | 0.00 | 90 | 1010.9 |
| 20260502105558 | 54 | 183 | 2.0 | 5.0 | 0.00 | 0.00 | 0.00 | 90 | 1010.9 |
| 20260502105458 | 54 | 226 | 2.0 | 5.0 | 0.00 | 0.00 | 0.00 | 90 | 1010.9 |
| 20260502105352 | 54 | 161 | 2.0 | 5.0 | 0.00 | 0.00 | 0.00 | 90 | 1011.0 |
| 20260502105252 | 54 | 236 | 2.0 | 5.0 | 0.00 | 0.00 | 0.00 | 90 | 1010.9 |
| 20260502105149 | 54 | 237 | 2.0 | 5.0 | 0.00 | 0.00 | 0.00 | 90 | 1011.0 |
| 20260502105121 | 54 | 236 | 2.0 | 6.0 | 0.00 | 0.00 | 0.00 | 90 | 1011.0 |
| 20260502105050 | 54 | 236 | 2.0 | 6.0 | 0.00 | 0.00 | 0.00 | 90 | 1011.0 |
| 20260502104950 | 54 | 233 | 2.0 | 6.0 | 0.00 | 0.00 | 0.00 | 90 | 1011.0 |
| 20260502104844 | 54 | 249 | 2.0 | 6.0 | 0.00 | 0.00 | 0.00 | 90 | 1011.0 |
| 20260502104744 | 54 | 204 | 2.0 | 6.0 | 0.00 | 0.00 | 0.00 | 90 | 1011.0 |
| 20260502104644 | 54 | 248 | 2.0 | 6.0 | 0.00 | 0.00 | 0.00 | 90 | 1011.0 |
| 20260502104614 | 54 | 176 | 2.0 | 6.0 | 0.00 | 0.00 | 0.00 | 90 | 1011.0 |
| 20260502104544 | 54 | 197 | 2.0 | 6.0 | 0.00 | 0.00 | 0.00 | 90 | 1011.0 |
| 20260502104443 | 54 | 248 | 2.0 | 6.0 | 0.00 | 0.00 | 0.00 | 90 | 1011.0 |
| 20260502104338 | 54 | 243 | 2.0 | 6.0 | 0.00 | 0.00 | 0.00 | 89 | 1011.0 |
| 20260502104237 | 54 | 235 | 2.0 | 6.0 | 0.00 | 0.00 | 0.00 | 89 | 1011.0 |
| 20260502104138 | 54 | 239 | 2.0 | 6.0 | 0.00 | 0.00 | 0.00 | 89 | 1011.0 |
| 20260502104113 | 54 | 236 | 2.0 | 6.0 | 0.00 | 0.00 | 0.00 | 89 | 1011.0 |
| 20260502104038 | 54 | 259 | 2.0 | 6.0 | 0.00 | 0.00 | 0.00 | 89 | 1011.0 |
| 20260502103938 | 54 | 257 | 2.0 | 6.0 | 0.00 | 0.00 | 0.00 | 89 | 1011.1 |
| 20260502103839 | 54 | 226 | 2.0 | 6.0 | 0.00 | 0.00 | 0.00 | 89 | 1011.0 |
| 20260502103738 | 54 | 225 | 2.0 | 5.0 | 0.00 | 0.00 | 0.00 | 89 | 1011.0 |
| 20260502103638 | 54 | 232 | 2.0 | 5.0 | 0.00 | 0.00 | 0.00 | 89 | 1011.0 |
| 20260502103613 | 54 | 243 | 2.0 | 5.0 | 0.00 | 0.00 | 0.00 | 89 | 1011.0 |
| 20260502103538 | 54 | 225 | 1.0 | 5.0 | 0.00 | 0.00 | 0.00 | 89 | 1011.0 |
| 20260502103438 | 54 | 228 | 1.0 | 5.0 | 0.00 | 0.00 | 0.00 | 89 | 1011.0 |
| 20260502103338 | 54 | 195 | 1.0 | 5.0 | 0.00 | 0.00 | 0.00 | 89 | 1011.0 |
| 20260502103238 | 54 | 212 | 1.0 | 5.0 | 0.00 | 0.00 | 0.00 | 89 | 1011.0 |
| 20260502103138 | 54 | 216 | 1.0 | 5.0 | 0.00 | 0.00 | 0.00 | 89 | 1011.0 |
| 20260502103112 | 54 | 229 | 1.0 | 5.0 | 0.00 | 0.00 | 0.00 | 89 | 1011.0 |
| 20260502103039 | 54 | 229 | 1.0 | 5.0 | 0.00 | 0.00 | 0.00 | 89 | 1010.9 |
| 20260502102938 | 54 | 229 | 1.0 | 5.0 | 0.00 | 0.00 | 0.00 | 89 | 1010.9 |
| 20260502102838 | 54 | 243 | 1.0 | 5.0 | 0.00 | 0.00 | 0.00 | 89 | 1011.0 |
| 20260502102739 | 54 | 219 | 1.0 | 3.0 | 0.00 | 0.00 | 0.00 | 89 | 1011.0 |
| 20260502102638 | 54 | 221 | 1.0 | 3.0 | 0.00 | 0.00 | 0.00 | 88 | 1011.0 |
| 20260502102610 | 54 | 248 | 1.0 | 3.0 | 0.00 | 0.00 | 0.00 | 88 | 1011.0 |
| 20260502102538 | 54 | 248 | 1.0 | 3.0 | 0.00 | 0.00 | 0.00 | 88 | 1011.0 |
| 20260502102437 | 54 | 248 | 1.0 | 3.0 | 0.00 | 0.00 | 0.00 | 88 | 1011.0 |
| 20260502102336 | 54 | 248 | 1.0 | 3.0 | 0.00 | 0.00 | 0.00 | 88 | 1011.0 |
| 20260502102235 | 54 | 248 | 1.0 | 3.0 | 0.00 | 0.00 | 0.00 | 88 | 1011.1 |
| 20260502102136 | 54 | 171 | 1.0 | 3.0 | 0.00 | 0.00 | 0.00 | 88 | 1011.0 |
| 20260502102110 | 54 | 214 | 1.0 | 3.0 | 0.00 | 0.00 | 0.00 | 88 | 1011.0 |
| 20260502102036 | 54 | 238 | 1.0 | 3.0 | 0.00 | 0.00 | 0.00 | 88 | 1011.1 |
| 20260502101936 | 54 | 223 | 1.0 | 3.0 | 0.00 | 0.00 | 0.00 | 88 | 1011.1 |
| 20260502101836 | 54 | 232 | 1.0 | 4.0 | 0.00 | 0.00 | 0.00 | 88 | 1011.0 |
| 20260502101735 | 54 | 235 | 1.0 | 4.0 | 0.00 | 0.00 | 0.00 | 88 | 1011.0 |
| 20260502101611 | 54 | 212 | 1.0 | 4.0 | 0.00 | 0.00 | 0.00 | 88 | 1011.0 |
| 20260502101534 | 55 | 212 | 1.0 | 4.0 | 0.00 | 0.00 | 0.00 | 88 | 1011.0 |
| 20260502101433 | 55 | 212 | 2.0 | 4.0 | 0.00 | 0.00 | 0.00 | 88 | 1011.0 |
| 20260502101334 | 55 | 212 | 2.0 | 4.0 | 0.00 | 0.00 | 0.00 | 87 | 1011.0 |
| 20260502101230 | 55 | 228 | 2.0 | 4.0 | 0.00 | 0.00 | 0.00 | 87 | 1011.0 |
| 20260502101130 | 55 | 231 | 2.0 | 4.0 | 0.00 | 0.00 | 0.00 | 87 | 1011.0 |
| 20260502101108 | 55 | 210 | 2.0 | 4.0 | 0.00 | 0.00 | 0.00 | 87 | 1011.0 |
| 20260502101030 | 55 | 216 | 2.0 | 4.0 | 0.00 | 0.00 | 0.00 | 87 | 1011.0 |
| 20260502100929 | 55 | 231 | 2.0 | 4.0 | 0.00 | 0.00 | 0.00 | 87 | 1011.0 |
| 20260502100828 | 55 | 234 | 2.0 | 4.0 | 0.00 | 0.00 | 0.00 | 87 | 1011.0 |
| 20260502100728 | 55 | 208 | 2.0 | 4.0 | 0.00 | 0.00 | 0.00 | 87 | 1010.9 |
| 20260502100628 | 55 | 230 | 2.0 | 4.0 | 0.00 | 0.00 | 0.00 | 87 | 1010.9 |
| 20260502100607 | 55 | 229 | 2.0 | 4.0 | 0.00 | 0.00 | 0.00 | 87 | 1010.9 |
| 20260502100528 | 55 | 229 | 2.0 | 4.0 | 0.00 | 0.00 | 0.00 | 87 | 1011.0 |
| 20260502100428 | 55 | 217 | 2.0 | 4.0 | 0.00 | 0.00 | 0.00 | 87 | 1010.9 |
| 20260502100332 | 55 | 160 | 2.0 | 4.0 | 0.00 | 0.00 | 0.00 | 86 | 1010.9 |
| 20260502100328 | 55 | 134 | 2.0 | 4.0 | 0.00 | 0.00 | 0.00 | 87 | 1010.9 |
| 20260502100232 | 55 | 219 | 2.0 | 4.0 | 0.00 | 0.00 | 0.00 | 87 | 1010.9 |
| 20260502100224 | 55 | 236 | 2.0 | 4.0 | 0.00 | 0.00 | 0.00 | 86 | 1010.9 |
| 20260502091517 | 55 | 132 | 0.0 | 2.0 | 0.00 | 0.00 | 0.00 | 86 | 1011.2 |
| 20260502091418 | 55 | 132 | 0.0 | 2.0 | 0.00 | 0.00 | 0.00 | 86 | 1011.1 |
| 20260502091318 | 55 | 132 | 0.0 | 2.0 | 0.00 | 0.00 | 0.00 | 86 | 1011.2 |
| 20260502091219 | 55 | 132 | 0.0 | 2.0 | 0.00 | 0.00 | 0.00 | 86 | 1011.2 |
| 20260502091103 | 55 | 132 | 0.0 | 2.0 | 0.00 | 0.00 | 0.00 | 86 | 1011.2 |
| 20260502091014 | 55 | 132 | 0.0 | 2.0 | 0.00 | 0.00 | 0.00 | 86 | 1011.2 |
| 20260502090914 | 55 | 132 | 0.0 | 2.0 | 0.00 | 0.00 | 0.00 | 86 | 1011.2 |
| 20260502090814 | 55 | 142 | 0.0 | 1.0 | 0.00 | 0.00 | 0.00 | 86 | 1011.2 |
| 20260502090714 | 55 | 143 | 0.0 | 1.0 | 0.00 | 0.00 | 0.00 | 86 | 1011.2 |
| 20260502090604 | 55 | 143 | 0.0 | 0.0 | 0.00 | 0.00 | 0.00 | 86 | 1011.2 |
| 20260502090514 | 55 | 143 | 0.0 | 0.0 | 0.00 | 0.00 | 0.00 | 86 | 1011.2 |
| 20260502090414 | 55 | 143 | 0.0 | 0.0 | 0.00 | 0.00 | 0.00 | 86 | 1011.2 |
| 20260502090314 | 55 | 144 | 0.0 | 0.0 | 0.00 | 0.00 | 0.00 | 85 | 1011.2 |
| 20260502090214 | 55 | 142 | 0.0 | 0.0 | 0.00 | 0.00 | 0.00 | 85 | 1011.2 |
| 20260502090119 | 55 | 143 | 0.0 | 0.0 | 0.00 | 0.00 | 0.00 | 85 | 1011.2 |
| 20260502090109 | 56 | 142 | 0.0 | 0.0 | 0.00 | 0.00 | 0.00 | 85 | 1011.2 |
| 20260502071450 | 58 | 120 | 1.0 | 2.0 | 0.00 | 0.00 | 0.00 | 83 | 1011.4 |
| 20260502071350 | 58 | 118 | 0.0 | 2.0 | 0.00 | 0.00 | 0.00 | 83 | 1011.3 |
| 20260502071250 | 58 | 131 | 0.0 | 2.0 | 0.00 | 0.00 | 0.00 | 83 | 1011.3 |
| 20260502071150 | 58 | 145 | 0.0 | 2.0 | 0.00 | 0.00 | 0.00 | 82 | 1011.3 |
| 20260502071050 | 58 | 145 | 0.0 | 2.0 | 0.00 | 0.00 | 0.00 | 82 | 1011.3 |
| 20260502070950 | 58 | 145 | 0.0 | 2.0 | 0.00 | 0.00 | 0.00 | 82 | 1011.3 |
| 20260502070850 | 58 | 186 | 0.0 | 3.0 | 0.00 | 0.00 | 0.00 | 82 | 1011.3 |
| 20260502070824 | 58 | 219 | 1.0 | 3.0 | 0.00 | 0.00 | 0.00 | 82 | 1011.3 |
| 20260502070750 | 58 | 186 | 1.0 | 3.0 | 0.00 | 0.00 | 0.00 | 82 | 1011.3 |
| 20260502070710 | 58 | 181 | 1.0 | 3.0 | 0.00 | 0.00 | 0.00 | 82 | 1011.3 |
| 20260502070551 | 58 | 219 | 1.0 | 3.0 | 0.00 | 0.00 | 0.00 | 82 | 1011.3 |
| 20260502070450 | 58 | 219 | 1.0 | 3.0 | 0.00 | 0.00 | 0.00 | 82 | 1011.3 |
| 20260502070346 | 58 | 219 | 1.0 | 3.0 | 0.00 | 0.00 | 0.00 | 82 | 1011.3 |
| 20260502070246 | 58 | 219 | 1.0 | 3.0 | 0.00 | 0.00 | 0.00 | 82 | 1011.3 |
| 20260502070145 | 59 | 221 | 1.0 | 3.0 | 0.00 | 0.00 | 0.00 | 82 | 1011.3 |
| 20260502070107 | 59 | 221 | 1.0 | 4.0 | 0.00 | 0.00 | 0.00 | 82 | 1011.3 |
| 20260502070046 | 59 | 168 | 1.0 | 4.0 | 0.00 | 0.00 | 0.00 | 82 | 1011.2 |
| 20260502065947 | 59 | 194 | 2.0 | 6.0 | 0.00 | 0.00 | 0.00 | 82 | 1011.3 |
| 20260502065846 | 59 | 165 | 2.0 | 6.0 | 0.00 | 0.00 | 0.00 | 82 | 1011.2 |
| 20260502065746 | 59 | 155 | 2.0 | 6.0 | 0.00 | 0.00 | 0.00 | 82 | 1011.2 |
| 20260502065647 | 59 | 219 | 2.0 | 6.0 | 0.00 | 0.00 | 0.00 | 82 | 1011.2 |
| 20260502065546 | 59 | 210 | 2.0 | 6.0 | 0.00 | 0.00 | 0.00 | 82 | 1011.2 |
| 20260502065446 | 59 | 193 | 2.0 | 6.0 | 0.00 | 0.00 | 0.00 | 82 | 1011.2 |
| 20260502065345 | 59 | 193 | 2.0 | 6.0 | 0.00 | 0.00 | 0.00 | 82 | 1011.2 |
| 20260502065244 | 59 | 200 | 2.0 | 6.0 | 0.00 | 0.00 | 0.00 | 82 | 1011.2 |
| 20260502065138 | 59 | 228 | 1.0 | 6.0 | 0.00 | 0.00 | 0.00 | 82 | 1011.2 |
| 20260502065100 | 59 | 229 | 1.0 | 6.0 | 0.00 | 0.00 | 0.00 | 82 | 1011.2 |
| 20260502065039 | 59 | 231 | 1.0 | 6.0 | 0.00 | 0.00 | 0.00 | 82 | 1011.2 |
| 20260502064938 | 59 | 223 | 1.0 | 5.0 | 0.00 | 0.00 | 0.00 | 82 | 1011.2 |
| 20260502064838 | 59 | 235 | 0.0 | 5.0 | 0.00 | 0.00 | 0.00 | 82 | 1011.2 |
| 20260502064739 | 59 | 217 | 0.0 | 3.0 | 0.00 | 0.00 | 0.00 | 82 | 1011.2 |
| 20260502064636 | 59 | 219 | 0.0 | 2.0 | 0.00 | 0.00 | 0.00 | 82 | 1011.2 |
| 20260502064536 | 59 | 160 | 0.0 | 2.0 | 0.00 | 0.00 | 0.00 | 82 | 1011.2 |
| 20260502064436 | 59 | 161 | 0.0 | 2.0 | 0.00 | 0.00 | 0.00 | 82 | 1011.2 |
| 20260502064335 | 59 | 160 | 0.0 | 2.0 | 0.00 | 0.00 | 0.00 | 82 | 1011.2 |
| 20260502064309 | 59 | 211 | 0.0 | 1.0 | 0.00 | 0.00 | 0.00 | 82 | 1011.2 |
| 20260502064233 | 59 | 117 | 0.0 | 1.0 | 0.00 | 0.00 | 0.00 | 82 | 1011.2 |
| 20260502064158 | 59 | 117 | 0.0 | 1.0 | 0.00 | 0.00 | 0.00 | 82 | 1011.2 |
| 20260502064026 | 59 | 212 | 0.0 | 1.0 | 0.00 | 0.00 | 0.00 | 82 | 1011.2 |
| 20260502063926 | 59 | 211 | 0.0 | 1.0 | 0.00 | 0.00 | 0.00 | 82 | 1011.2 |
| 20260502063826 | 59 | 212 | 0.0 | 1.0 | 0.00 | 0.00 | 0.00 | 82 | 1011.2 |
| 20260502063727 | 59 | 211 | 0.0 | 1.0 | 0.00 | 0.00 | 0.00 | 82 | 1011.2 |
| 20260502063627 | 59 | 175 | 0.0 | 1.0 | 0.00 | 0.00 | 0.00 | 82 | 1011.2 |
| 20260502063525 | 59 | 175 | 0.0 | 2.0 | 0.00 | 0.00 | 0.00 | 82 | 1011.2 |
| 20260502063424 | 59 | 133 | 0.0 | 2.0 | 0.00 | 0.00 | 0.00 | 81 | 1011.2 |
| 20260502063322 | 59 | 132 | 0.0 | 2.0 | 0.00 | 0.00 | 0.00 | 82 | 1011.2 |
| 20260502063220 | 59 | 134 | 0.0 | 2.0 | 0.00 | 0.00 | 0.00 | 82 | 1011.2 |
| 20260502063121 | 59 | 134 | 0.0 | 2.0 | 0.00 | 0.00 | 0.00 | 81 | 1011.2 |
| 20260502063018 | 59 | 134 | 0.0 | 2.0 | 0.00 | 0.00 | 0.00 | 81 | 1011.1 |
| 20260502062923 | 59 | 146 | 0.0 | 2.0 | 0.00 | 0.00 | 0.00 | 81 | 1011.2 |
| 20260502062816 | 60 | 146 | 0.0 | 2.0 | 0.00 | 0.00 | 0.00 | 81 | 1011.2 |
| 20260502062714 | 60 | 146 | 0.0 | 2.0 | 0.00 | 0.00 | 0.00 | 81 | 1011.2 |
| 20260502062614 | 60 | 133 | 0.0 | 2.0 | 0.00 | 0.00 | 0.00 | 81 | 1011.2 |
| 20260502062512 | 60 | 132 | 0.0 | 2.0 | 0.00 | 0.00 | 0.00 | 81 | 1011.1 |
| 20260502062412 | 60 | 132 | 0.0 | 1.0 | 0.00 | 0.00 | 0.00 | 81 | 1011.1 |
| 20260502062310 | 60 | 132 | 0.0 | 1.0 | 0.00 | 0.00 | 0.00 | 81 | 1011.1 |
| 20260502062208 | 60 | 132 | 0.0 | 2.0 | 0.00 | 0.00 | 0.00 | 80 | 1011.1 |
| 20260502062106 | 60 | 132 | 0.0 | 2.0 | 0.00 | 0.00 | 0.00 | 80 | 1011.1 |
| 20260502062028 | 60 | 133 | 1.0 | 2.0 | 0.00 | 0.00 | 0.00 | 80 | 1011.1 |
| 20260502062006 | 60 | 132 | 1.0 | 2.0 | 0.00 | 0.00 | 0.00 | 80 | 1011.1 |
| 20260502061906 | 60 | 133 | 1.0 | 4.0 | 0.00 | 0.00 | 0.00 | 80 | 1011.1 |
| 20260502061805 | 60 | 132 | 1.0 | 4.0 | 0.00 | 0.00 | 0.00 | 80 | 1011.1 |
| 20260502061752 | 60 | 225 | 1.0 | 5.0 | 0.00 | 0.00 | 0.00 | 80 | 1011.1 |
| 20260502061702 | 60 | 132 | 1.0 | 4.0 | 0.00 | 0.00 | 0.00 | 80 | 1011.1 |
| 20260502061558 | 60 | 151 | 1.0 | 5.0 | 0.00 | 0.00 | 0.00 | 80 | 1011.1 |
| 20260502061457 | 60 | 225 | 1.0 | 5.0 | 0.00 | 0.00 | 0.00 | 80 | 1011.1 |
| 20260502061356 | 60 | 225 | 2.0 | 5.0 | 0.00 | 0.00 | 0.00 | 80 | 1011.1 |
| 20260502061300 | 60 | 221 | 2.0 | 5.0 | 0.00 | 0.00 | 0.00 | 80 | 1011.1 |
| 20260502061251 | 60 | 210 | 2.0 | 7.0 | 0.00 | 0.00 | 0.00 | 80 | 1011.1 |
| 20260502061157 | 60 | 223 | 2.0 | 7.0 | 0.00 | 0.00 | 0.00 | 80 | 1011.1 |
| 20260502061136 | 60 | 228 | 2.0 | 7.0 | 0.00 | 0.00 | 0.00 | 80 | 1011.1 |
| 20260502060954 | 60 | 219 | 2.0 | 7.0 | 0.00 | 0.00 | 0.00 | 79 | 1011.1 |
| 20260502060854 | 60 | 229 | 2.0 | 7.0 | 0.00 | 0.00 | 0.00 | 79 | 1011.1 |
| 20260502060752 | 60 | 229 | 2.0 | 7.0 | 0.00 | 0.00 | 0.00 | 79 | 1011.0 |
| 20260502060650 | 60 | 248 | 2.0 | 7.0 | 0.00 | 0.00 | 0.00 | 79 | 1011.0 |
| 20260502060525 | 60 | 236 | 2.0 | 7.0 | 0.00 | 0.00 | 0.00 | 79 | 1011.0 |
| 20260502060444 | 60 | 233 | 2.0 | 7.0 | 0.00 | 0.00 | 0.00 | 79 | 1011.1 |
| 20260502060344 | 61 | 237 | 2.0 | 7.0 | 0.00 | 0.00 | 0.00 | 79 | 1011.1 |
| 20260502060245 | 61 | 245 | 2.0 | 7.0 | 0.00 | 0.00 | 0.00 | 79 | 1011.1 |
| 20260502060144 | 61 | 193 | 2.0 | 7.0 | 0.00 | 0.00 | 0.00 | 79 | 1011.1 |
| 20260502060044 | 61 | 225 | 2.0 | 7.0 | 0.00 | 0.00 | 0.00 | 79 | 1011.1 |
| 20260502060026 | 61 | 219 | 2.0 | 7.0 | 0.00 | 0.00 | 0.00 | 79 | 1011.1 |
| 20260502055942 | 61 | 229 | 2.0 | 7.0 | 0.00 | 0.00 | 0.00 | 79 | 1011.1 |
| 20260502055842 | 61 | 234 | 2.0 | 7.0 | 0.00 | 0.00 | 0.00 | 79 | 1011.1 |
| 20260502055741 | 61 | 217 | 2.0 | 7.0 | 0.00 | 0.00 | 0.00 | 79 | 1011.0 |
| 20260502055640 | 61 | 222 | 2.0 | 7.0 | 0.00 | 0.00 | 0.00 | 79 | 1011.1 |
| 20260502055534 | 61 | 235 | 2.0 | 7.0 | 0.00 | 0.00 | 0.00 | 79 | 1011.1 |
| 20260502055524 | 61 | 250 | 2.0 | 7.0 | 0.00 | 0.00 | 0.00 | 79 | 1011.1 |
| 20260502055432 | 61 | 204 | 2.0 | 7.0 | 0.00 | 0.00 | 0.00 | 79 | 1011.0 |
| 20260502055333 | 61 | 194 | 2.0 | 7.0 | 0.00 | 0.00 | 0.00 | 79 | 1011.1 |
| 20260502055232 | 61 | 230 | 2.0 | 7.0 | 0.00 | 0.00 | 0.00 | 79 | 1011.1 |
| 20260502055132 | 61 | 135 | 2.0 | 7.0 | 0.00 | 0.00 | 0.00 | 79 | 1011.1 |
| 20260502055022 | 61 | 217 | 2.0 | 7.0 | 0.00 | 0.00 | 0.00 | 79 | 1011.1 |
| 20260502054926 | 61 | 211 | 2.0 | 7.0 | 0.00 | 0.00 | 0.00 | 79 | 1011.1 |
| 20260502054826 | 61 | 232 | 2.0 | 7.0 | 0.00 | 0.00 | 0.00 | 79 | 1011.1 |
| 20260502054745 | 61 | 226 | 2.0 | 8.0 | 0.00 | 0.00 | 0.00 | 79 | 1011.1 |
| 20260502054728 | 61 | 204 | 2.0 | 8.0 | 0.00 | 0.00 | 0.00 | 79 | 1011.1 |
| 20260502054642 | 61 | 227 | 2.0 | 8.0 | 0.00 | 0.00 | 0.00 | 79 | 1011.1 |
| 20260502054632 | 61 | 226 | 2.0 | 8.0 | 0.00 | 0.00 | 0.00 | 79 | 1011.1 |
| 20260502054424 | 61 | 249 | 2.0 | 8.0 | 0.00 | 0.00 | 0.00 | 79 | 1011.1 |
| 20260502054322 | 61 | 232 | 3.0 | 8.0 | 0.00 | 0.00 | 0.00 | 79 | 1011.0 |
| 20260502054223 | 61 | 238 | 3.0 | 8.0 | 0.00 | 0.00 | 0.00 | 79 | 1011.1 |
| 20260502054120 | 61 | 222 | 3.0 | 8.0 | 0.00 | 0.00 | 0.00 | 79 | 1011.1 |
| 20260502054036 | 61 | 228 | 3.0 | 8.0 | 0.00 | 0.00 | 0.00 | 79 | 1011.1 |
| 20260502053914 | 61 | 240 | 3.0 | 8.0 | 0.00 | 0.00 | 0.00 | 79 | 1011.1 |
| 20260502053814 | 62 | 217 | 3.0 | 8.0 | 0.00 | 0.00 | 0.00 | 79 | 1011.0 |
| 20260502053715 | 62 | 253 | 3.0 | 8.0 | 0.00 | 0.00 | 0.00 | 79 | 1011.1 |
| 20260502053614 | 62 | 205 | 3.0 | 8.0 | 0.00 | 0.00 | 0.00 | 79 | 1011.1 |
| 20260502053520 | 62 | 218 | 4.0 | 11.0 | 0.00 | 0.00 | 0.00 | 79 | 1011.1 |
| 20260502053510 | 62 | 239 | 4.0 | 11.0 | 0.00 | 0.00 | 0.00 | 79 | 1011.1 |
| 20260502053408 | 62 | 200 | 4.0 | 11.0 | 0.00 | 0.00 | 0.00 | 79 | 1011.1 |
| 20260502053308 | 62 | 238 | 4.0 | 11.0 | 0.00 | 0.00 | 0.00 | 78 | 1011.1 |
| 20260502053208 | 62 | 232 | 4.0 | 11.0 | 0.00 | 0.00 | 0.00 | 78 | 1011.1 |
| 20260502053108 | 62 | 155 | 4.0 | 11.0 | 0.00 | 0.00 | 0.00 | 78 | 1011.1 |
| 20260502053021 | 62 | 219 | 4.0 | 11.0 | 0.00 | 0.00 | 0.00 | 78 | 1011.1 |
| 20260502053004 | 62 | 217 | 4.0 | 11.0 | 0.00 | 0.00 | 0.00 | 78 | 1011.1 |
| 20260502052903 | 62 | 226 | 4.0 | 11.0 | 0.00 | 0.00 | 0.00 | 78 | 1011.1 |
| 20260502052802 | 62 | 242 | 4.0 | 11.0 | 0.00 | 0.00 | 0.00 | 78 | 1011.1 |
| 20260502052745 | 62 | 233 | 3.0 | 10.0 | 0.00 | 0.00 | 0.00 | 78 | 1011.1 |
| 20260502052702 | 62 | 240 | 4.0 | 11.0 | 0.00 | 0.00 | 0.00 | 78 | 1011.1 |
| 20260502052630 | 62 | 210 | 4.0 | 11.0 | 0.00 | 0.00 | 0.00 | 78 | 1011.1 |
| 20260502052457 | 62 | 208 | 3.0 | 10.0 | 0.00 | 0.00 | 0.00 | 78 | 1011.1 |
| 20260502052356 | 62 | 246 | 3.0 | 9.0 | 0.00 | 0.00 | 0.00 | 78 | 1011.1 |
| 20260502052256 | 62 | 174 | 3.0 | 9.0 | 0.00 | 0.00 | 0.00 | 78 | 1011.0 |
| 20260502052156 | 62 | 243 | 3.0 | 9.0 | 0.00 | 0.00 | 0.00 | 78 | 1011.1 |
| 20260502052056 | 62 | 253 | 3.0 | 9.0 | 0.00 | 0.00 | 0.00 | 78 | 1011.0 |
| 20260502052019 | 62 | 240 | 3.0 | 9.0 | 0.00 | 0.00 | 0.00 | 78 | 1011.0 |
| 20260502051950 | 62 | 240 | 3.0 | 9.0 | 0.00 | 0.00 | 0.00 | 78 | 1011.0 |
| 20260502051850 | 62 | 228 | 3.0 | 9.0 | 0.00 | 0.00 | 0.00 | 78 | 1011.0 |
| 20260502051750 | 62 | 225 | 3.0 | 9.0 | 0.00 | 0.00 | 0.00 | 78 | 1011.0 |
| 20260502051651 | 62 | 228 | 3.0 | 9.0 | 0.00 | 0.00 | 0.00 | 78 | 1011.0 |
| 20260502051550 | 62 | 250 | 3.0 | 9.0 | 0.00 | 0.00 | 0.00 | 78 | 1011.0 |
| 20260502051519 | 62 | 237 | 3.0 | 9.0 | 0.00 | 0.00 | 0.00 | 78 | 1011.0 |
| 20260502051444 | 62 | 217 | 4.0 | 9.0 | 0.00 | 0.00 | 0.00 | 78 | 1011.0 |
| 20260502051344 | 62 | 211 | 4.0 | 9.0 | 0.00 | 0.00 | 0.00 | 77 | 1011.0 |
| 20260502051252 | 62 | 234 | 4.0 | 9.0 | 0.00 | 0.00 | 0.00 | 77 | 1011.0 |
| 20260502051245 | 62 | 236 | 4.0 | 9.0 | 0.00 | 0.00 | 0.00 | 77 | 1011.0 |
| 20260502051144 | 62 | 229 | 4.0 | 9.0 | 0.00 | 0.00 | 0.00 | 77 | 1011.0 |
| 20260502051129 | 62 | 238 | 4.0 | 9.0 | 0.00 | 0.00 | 0.00 | 77 | 1011.0 |
| 20260502050943 | 63 | 228 | 4.0 | 9.0 | 0.00 | 0.00 | 0.00 | 77 | 1011.0 |
| 20260502050843 | 63 | 232 | 4.0 | 9.0 | 0.00 | 0.00 | 0.00 | 77 | 1011.0 |
| 20260502050742 | 63 | 190 | 4.0 | 9.0 | 0.00 | 0.00 | 0.00 | 77 | 1011.0 |
| 20260502050642 | 63 | 233 | 4.0 | 9.0 | 0.00 | 0.00 | 0.00 | 77 | 1010.9 |
| 20260502050543 | 63 | 203 | 4.0 | 9.0 | 0.00 | 0.00 | 0.00 | 77 | 1010.9 |
| 20260502050528 | 63 | 223 | 4.0 | 9.0 | 0.00 | 0.00 | 0.00 | 77 | 1010.9 |
| 20260502050443 | 63 | 242 | 4.0 | 9.0 | 0.00 | 0.00 | 0.00 | 77 | 1011.0 |
| 20260502050342 | 63 | 264 | 4.0 | 10.0 | 0.00 | 0.00 | 0.00 | 77 | 1011.0 |
| 20260502050242 | 63 | 224 | 4.0 | 10.0 | 0.00 | 0.00 | 0.00 | 77 | 1011.0 |
| 20260502050144 | 63 | 236 | 4.0 | 10.0 | 0.00 | 0.00 | 0.00 | 77 | 1011.0 |
| 20260502050043 | 63 | 245 | 4.0 | 10.0 | 0.00 | 0.00 | 0.00 | 77 | 1010.9 |
| 20260502050017 | 63 | 237 | 4.0 | 10.0 | 0.00 | 0.00 | 0.00 | 77 | 1010.9 |
| 20260502045944 | 63 | 229 | 4.0 | 10.0 | 0.00 | 0.00 | 0.00 | 77 | 1010.9 |
| 20260502045842 | 63 | 212 | 4.0 | 10.0 | 0.00 | 0.00 | 0.00 | 77 | 1010.9 |
| 20260502045744 | 63 | 232 | 4.0 | 10.0 | 0.00 | 0.00 | 0.00 | 77 | 1011.0 |
| 20260502045642 | 63 | 246 | 4.0 | 10.0 | 0.00 | 0.00 | 0.00 | 77 | 1011.0 |
| 20260502045542 | 63 | 224 | 4.0 | 10.0 | 0.00 | 0.00 | 0.00 | 76 | 1011.0 |
| 20260502045518 | 63 | 248 | 4.0 | 10.0 | 0.00 | 0.00 | 0.00 | 76 | 1011.0 |
| 20260502045442 | 63 | 233 | 4.0 | 10.0 | 0.00 | 0.00 | 0.00 | 76 | 1011.0 |
| 20260502045344 | 63 | 255 | 4.0 | 8.0 | 0.00 | 0.00 | 0.00 | 77 | 1011.0 |
| 20260502045244 | 64 | 239 | 4.0 | 8.0 | 0.00 | 0.00 | 0.00 | 76 | 1010.9 |
| 20260502045237 | 63 | 243 | 4.0 | 8.0 | 0.00 | 0.00 | 0.00 | 77 | 1011.0 |
| 20260502045226 | 64 | 235 | 4.0 | 9.0 | 0.00 | 0.00 | 0.00 | 76 | 1010.9 |
| 20260502045137 | 64 | 266 | 4.0 | 8.0 | 0.00 | 0.00 | 0.00 | 76 | 1011.0 |
| 20260502045127 | 64 | 228 | 4.0 | 8.0 | 0.00 | 0.00 | 0.00 | 76 | 1010.9 |
| 20260502044936 | 64 | 262 | 4.0 | 8.0 | 0.00 | 0.00 | 0.00 | 76 | 1010.9 |
| 20260502044849 | 64 | 246 | 4.0 | 9.0 | 0.00 | 0.00 | 0.00 | 76 | 1011.0 |
| 20260502044733 | 64 | 226 | 4.0 | 9.0 | 0.00 | 0.00 | 0.00 | 76 | 1011.0 |
| 20260502044630 | 64 | 236 | 4.0 | 9.0 | 0.00 | 0.00 | 0.00 | 76 | 1010.9 |
| 20260502044620 | 64 | 232 | 4.0 | 9.0 | 0.00 | 0.00 | 0.00 | 76 | 1010.9 |
| 20260502044431 | 64 | 225 | 4.0 | 9.0 | 0.00 | 0.00 | 0.00 | 76 | 1010.9 |
| 20260502044330 | 64 | 235 | 4.0 | 9.0 | 0.00 | 0.00 | 0.00 | 76 | 1010.9 |
| 20260502044227 | 64 | 236 | 4.0 | 9.0 | 0.00 | 0.00 | 0.00 | 76 | 1010.9 |
| 20260502044124 | 64 | 224 | 4.0 | 9.0 | 0.00 | 0.00 | 0.00 | 76 | 1010.9 |
| 20260502044024 | 64 | 229 | 4.0 | 9.0 | 0.00 | 0.00 | 0.00 | 76 | 1010.8 |
| 20260502044005 | 64 | 219 | 4.0 | 9.0 | 0.00 | 0.00 | 0.00 | 76 | 1010.8 |
| 20260502043925 | 64 | 217 | 4.0 | 9.0 | 0.00 | 0.00 | 0.00 | 75 | 1010.9 |
| 20260502043825 | 64 | 240 | 4.0 | 9.0 | 0.00 | 0.00 | 0.00 | 76 | 1010.9 |
| 20260502043723 | 64 | 219 | 4.0 | 9.0 | 0.00 | 0.00 | 0.00 | 75 | 1010.9 |
| 20260502043622 | 64 | 239 | 4.0 | 9.0 | 0.00 | 0.00 | 0.00 | 75 | 1010.9 |
| 20260502043522 | 65 | 228 | 4.0 | 9.0 | 0.00 | 0.00 | 0.00 | 75 | 1010.9 |
| 20260502043458 | 65 | 212 | 4.0 | 9.0 | 0.00 | 0.00 | 0.00 | 75 | 1010.9 |
| 20260502043420 | 65 | 212 | 4.0 | 9.0 | 0.00 | 0.00 | 0.00 | 75 | 1010.8 |
| 20260502043319 | 65 | 242 | 4.0 | 9.0 | 0.00 | 0.00 | 0.00 | 75 | 1010.9 |
| 20260502043213 | 65 | 228 | 4.0 | 9.0 | 0.00 | 0.00 | 0.00 | 75 | 1010.8 |
| 20260502043112 | 65 | 256 | 4.0 | 9.0 | 0.00 | 0.00 | 0.00 | 75 | 1010.8 |
| 20260502043012 | 65 | 250 | 4.0 | 9.0 | 0.00 | 0.00 | 0.00 | 75 | 1010.8 |
| 20260502042952 | 65 | 226 | 4.0 | 9.0 | 0.00 | 0.00 | 0.00 | 75 | 1010.8 |
| 20260502042912 | 65 | 250 | 4.0 | 9.0 | 0.00 | 0.00 | 0.00 | 75 | 1010.8 |
| 20260502042813 | 65 | 242 | 4.0 | 9.0 | 0.00 | 0.00 | 0.00 | 75 | 1010.8 |
| 20260502042706 | 65 | 250 | 4.0 | 8.0 | 0.00 | 0.00 | 0.00 | 75 | 1010.8 |
| 20260502042606 | 65 | 231 | 4.0 | 8.0 | 0.00 | 0.00 | 0.00 | 75 | 1010.8 |
| 20260502042507 | 65 | 253 | 3.0 | 8.0 | 0.00 | 0.00 | 0.00 | 75 | 1010.8 |
| 20260502042447 | 65 | 248 | 3.0 | 8.0 | 0.00 | 0.00 | 0.00 | 75 | 1010.7 |
| 20260502042407 | 65 | 240 | 3.0 | 8.0 | 0.00 | 0.00 | 0.00 | 75 | 1010.7 |
| 20260502042306 | 65 | 218 | 3.0 | 8.0 | 0.00 | 0.00 | 0.00 | 75 | 1010.7 |
| 20260502042202 | 65 | 225 | 3.0 | 8.0 | 0.00 | 0.00 | 0.00 | 74 | 1010.7 |
| 20260502042101 | 65 | 264 | 3.0 | 7.0 | 0.00 | 0.00 | 0.00 | 75 | 1010.7 |
| 20260502042000 | 66 | 231 | 3.0 | 9.0 | 0.00 | 0.00 | 0.00 | 74 | 1010.7 |
| 20260502041941 | 66 | 200 | 3.0 | 9.0 | 0.00 | 0.00 | 0.00 | 74 | 1010.7 |
| 20260502041900 | 66 | 240 | 3.0 | 9.0 | 0.00 | 0.00 | 0.00 | 74 | 1010.7 |
| 20260502041800 | 66 | 236 | 3.0 | 9.0 | 0.00 | 0.00 | 0.00 | 74 | 1010.6 |
| 20260502041654 | 66 | 230 | 3.0 | 10.0 | 0.00 | 0.00 | 0.00 | 74 | 1010.7 |
| 20260502041554 | 66 | 217 | 3.0 | 10.0 | 0.00 | 0.00 | 0.00 | 74 | 1010.6 |
| 20260502041454 | 66 | 222 | 3.0 | 10.0 | 0.00 | 0.00 | 0.00 | 74 | 1010.6 |
| 20260502041433 | 66 | 235 | 3.0 | 10.0 | 0.00 | 0.00 | 0.00 | 74 | 1010.7 |
| 20260502041354 | 66 | 243 | 3.0 | 10.0 | 0.00 | 0.00 | 0.00 | 74 | 1010.7 |
| 20260502041254 | 66 | 222 | 4.0 | 10.0 | 0.00 | 0.00 | 0.00 | 74 | 1010.6 |
| 20260502041148 | 66 | 269 | 4.0 | 10.0 | 0.00 | 0.00 | 0.00 | 74 | 1010.6 |
| 20260502041128 | 66 | 257 | 4.0 | 10.0 | 0.00 | 0.00 | 0.00 | 73 | 1010.6 |
| 20260502041055 | 66 | 268 | 4.0 | 10.0 | 0.00 | 0.00 | 0.00 | 73 | 1010.6 |
| 20260502041047 | 66 | 224 | 4.0 | 10.0 | 0.00 | 0.00 | 0.00 | 73 | 1010.7 |
| 20260502041036 | 66 | 245 | 4.0 | 10.0 | 0.00 | 0.00 | 0.00 | 73 | 1010.7 |
| 20260502040848 | 66 | 259 | 4.0 | 10.0 | 0.00 | 0.00 | 0.00 | 73 | 1010.7 |
| 20260502040757 | 66 | 225 | 4.0 | 10.0 | 0.00 | 0.00 | 0.00 | 73 | 1010.7 |
| 20260502040642 | 66 | 217 | 4.0 | 10.0 | 0.00 | 0.00 | 0.00 | 73 | 1010.6 |
| 20260502040543 | 66 | 212 | 4.0 | 10.0 | 0.00 | 0.00 | 0.00 | 73 | 1010.6 |
| 20260502040533 | 66 | 241 | 4.0 | 10.0 | 0.00 | 0.00 | 0.00 | 73 | 1010.6 |
| 20260502040342 | 66 | 241 | 4.0 | 10.0 | 0.00 | 0.00 | 0.00 | 73 | 1010.6 |
| 20260502040242 | 67 | 248 | 4.0 | 10.0 | 0.00 | 0.00 | 0.00 | 73 | 1010.6 |
| 20260502040143 | 67 | 262 | 3.0 | 8.0 | 0.00 | 0.00 | 0.00 | 73 | 1010.5 |
| 20260502040137 | 67 | 274 | 4.0 | 10.0 | 0.00 | 0.00 | 0.00 | 73 | 1010.4 |
| 20260502040038 | 67 | 208 | 4.0 | 10.0 | 0.00 | 0.00 | 0.00 | 73 | 1010.4 |
| 20260502040029 | 67 | 238 | 3.0 | 10.0 | 0.00 | 0.00 | 0.00 | 73 | 1010.5 |
| 20260502035836 | 67 | 240 | 4.0 | 8.0 | 0.00 | 0.00 | 0.00 | 73 | 1010.4 |
| 20260502035736 | 67 | 243 | 3.0 | 8.0 | 0.00 | 0.00 | 0.00 | 72 | 1010.4 |
| 20260502035639 | 67 | 174 | 4.0 | 8.0 | 0.00 | 0.00 | 0.00 | 72 | 1010.4 |
| 20260502035630 | 67 | 226 | 4.0 | 8.0 | 0.00 | 0.00 | 0.00 | 72 | 1010.4 |
| 20260502035531 | 67 | 233 | 4.0 | 8.0 | 0.00 | 0.00 | 0.00 | 72 | 1010.4 |
| 20260502035523 | 67 | 223 | 4.0 | 8.0 | 0.00 | 0.00 | 0.00 | 72 | 1010.4 |
| 20260502035331 | 67 | 235 | 4.0 | 8.0 | 0.00 | 0.00 | 0.00 | 72 | 1010.4 |
| 20260502035230 | 67 | 239 | 4.0 | 8.0 | 0.00 | 0.00 | 0.00 | 72 | 1010.3 |
| 20260502035131 | 68 | 250 | 4.0 | 8.0 | 0.00 | 0.00 | 0.00 | 71 | 1010.3 |
| 20260502035125 | 68 | 236 | 4.0 | 8.0 | 0.00 | 0.00 | 0.00 | 72 | 1010.3 |
| 20260502035032 | 68 | 242 | 4.0 | 8.0 | 0.00 | 0.00 | 0.00 | 71 | 1010.3 |
| 20260502035024 | 68 | 263 | 4.0 | 8.0 | 0.00 | 0.00 | 0.00 | 71 | 1010.3 |
| 20260502034824 | 68 | 259 | 4.0 | 8.0 | 0.00 | 0.00 | 0.00 | 71 | 1010.3 |
| 20260502034727 | 68 | 240 | 4.0 | 8.0 | 0.00 | 0.00 | 0.00 | 71 | 1010.3 |
| 20260502034620 | 68 | 226 | 4.0 | 8.0 | 0.00 | 0.00 | 0.00 | 71 | 1010.3 |
| 20260502034519 | 68 | 240 | 4.0 | 11.0 | 0.00 | 0.00 | 0.00 | 70 | 1010.2 |
| 20260502034418 | 68 | 250 | 4.0 | 11.0 | 0.00 | 0.00 | 0.00 | 70 | 1010.3 |
| 20260502034358 | 69 | 256 | 4.0 | 11.0 | 0.00 | 0.00 | 0.00 | 70 | 1010.3 |
| 20260502034319 | 69 | 233 | 3.0 | 11.0 | 0.00 | 0.00 | 0.00 | 70 | 1010.3 |
| 20260502034218 | 69 | 243 | 4.0 | 11.0 | 0.00 | 0.00 | 0.00 | 70 | 1010.2 |
| 20260502034112 | 69 | 222 | 4.0 | 11.0 | 0.00 | 0.00 | 0.00 | 70 | 1010.2 |
| 20260502034012 | 69 | 219 | 4.0 | 11.0 | 0.00 | 0.00 | 0.00 | 70 | 1010.2 |
| 20260502033912 | 69 | 240 | 4.0 | 11.0 | 0.00 | 0.00 | 0.00 | 69 | 1010.2 |
| 20260502033855 | 69 | 222 | 4.0 | 11.0 | 0.00 | 0.00 | 0.00 | 69 | 1010.2 |
| 20260502033812 | 69 | 221 | 4.0 | 11.0 | 0.00 | 0.00 | 0.00 | 69 | 1010.2 |
| 20260502033712 | 69 | 188 | 4.0 | 11.0 | 0.00 | 0.00 | 0.00 | 69 | 1010.2 |
| 20260502033608 | 69 | 226 | 4.0 | 11.0 | 0.00 | 0.00 | 0.00 | 69 | 1010.2 |
| 20260502033510 | 69 | 250 | 3.0 | 8.0 | 0.00 | 0.00 | 0.00 | 69 | 1010.2 |
| 20260502033409 | 69 | 246 | 3.0 | 8.0 | 0.00 | 0.00 | 0.00 | 69 | 1010.1 |
| 20260502033347 | 69 | 231 | 3.0 | 8.0 | 0.00 | 0.00 | 0.00 | 69 | 1010.1 |
| 20260502033309 | 69 | 242 | 3.0 | 9.0 | 0.00 | 0.00 | 0.00 | 69 | 1010.1 |
| 20260502033100 | 70 | 246 | 3.0 | 9.0 | 0.00 | 0.00 | 0.00 | 68 | 1010.0 |
| 20260502033000 | 70 | 241 | 3.0 | 9.0 | 0.00 | 0.00 | 0.00 | 68 | 1010.0 |
| 20260502032900 | 70 | 215 | 3.0 | 9.0 | 0.00 | 0.00 | 0.00 | 68 | 1010.0 |
| 20260502032840 | 70 | 245 | 3.0 | 9.0 | 0.00 | 0.00 | 0.00 | 68 | 1010.0 |
| 20260502032800 | 70 | 222 | 3.0 | 9.0 | 0.00 | 0.00 | 0.00 | 68 | 1010.0 |
| 20260502032700 | 70 | 236 | 4.0 | 9.0 | 0.00 | 0.00 | 0.00 | 68 | 1010.0 |
| 20260502032554 | 70 | 236 | 4.0 | 9.0 | 0.00 | 0.00 | 0.00 | 68 | 1010.0 |
| 20260502032455 | 70 | 235 | 4.0 | 9.0 | 0.00 | 0.00 | 0.00 | 67 | 1010.0 |
| 20260502032354 | 70 | 246 | 4.0 | 9.0 | 0.00 | 0.00 | 0.00 | 67 | 1010.0 |
| 20260502032335 | 70 | 203 | 4.0 | 9.0 | 0.00 | 0.00 | 0.00 | 67 | 1010.0 |
| 20260502032254 | 70 | 253 | 4.0 | 9.0 | 0.00 | 0.00 | 0.00 | 67 | 1010.0 |
| 20260502032154 | 70 | 235 | 4.0 | 9.0 | 0.00 | 0.00 | 0.00 | 67 | 1010.0 |
| 20260502032059 | 71 | 243 | 4.0 | 9.0 | 0.00 | 0.00 | 0.00 | 67 | 1009.9 |
| 20260502032050 | 70 | 264 | 4.0 | 9.0 | 0.00 | 0.00 | 0.00 | 68 | 1009.9 |
| 20260502031950 | 70 | 232 | 4.0 | 9.0 | 0.00 | 0.00 | 0.00 | 67 | 1009.9 |
| 20260502031939 | 71 | 253 | 4.0 | 9.0 | 0.00 | 0.00 | 0.00 | 67 | 1009.9 |
| 20260502031749 | 71 | 231 | 4.0 | 9.0 | 0.00 | 0.00 | 0.00 | 67 | 1009.9 |
| 20260502031649 | 71 | 239 | 3.0 | 9.0 | 0.00 | 0.00 | 0.00 | 67 | 1009.9 |
| 20260502031542 | 71 | 228 | 3.0 | 7.0 | 0.00 | 0.00 | 0.00 | 67 | 1009.9 |
| 20260502031442 | 71 | 213 | 4.0 | 8.0 | 0.00 | 0.00 | 0.00 | 67 | 1009.8 |
| 20260502031343 | 71 | 204 | 4.0 | 8.0 | 0.00 | 0.00 | 0.00 | 67 | 1009.9 |
| 20260502031323 | 71 | 215 | 4.0 | 8.0 | 0.00 | 0.00 | 0.00 | 67 | 1009.9 |
| 20260502031242 | 71 | 229 | 3.0 | 8.0 | 0.00 | 0.00 | 0.00 | 66 | 1009.9 |
| 20260502031142 | 71 | 233 | 3.0 | 8.0 | 0.00 | 0.00 | 0.00 | 66 | 1009.9 |
| 20260502031046 | 71 | 245 | 3.0 | 8.0 | 0.00 | 0.00 | 0.00 | 65 | 1009.9 |
| 20260502031038 | 71 | 245 | 3.0 | 8.0 | 0.00 | 0.00 | 0.00 | 66 | 1009.8 |
| 20260502030939 | 71 | 239 | 3.0 | 8.0 | 0.00 | 0.00 | 0.00 | 66 | 1009.8 |
| 20260502030926 | 71 | 233 | 3.0 | 8.0 | 0.00 | 0.00 | 0.00 | 65 | 1009.9 |
| 20260502030738 | 71 | 232 | 3.0 | 8.0 | 0.00 | 0.00 | 0.00 | 65 | 1009.8 |
| 20260502030637 | 72 | 228 | 4.0 | 8.0 | 0.00 | 0.00 | 0.00 | 65 | 1009.8 |
| 20260502030540 | 72 | 243 | 4.0 | 9.0 | 0.00 | 0.00 | 0.00 | 65 | 1009.8 |
| 20260502030530 | 72 | 246 | 4.0 | 8.0 | 0.00 | 0.00 | 0.00 | 65 | 1009.8 |
| 20260502030431 | 72 | 217 | 3.0 | 9.0 | 0.00 | 0.00 | 0.00 | 65 | 1009.8 |
| 20260502030421 | 72 | 235 | 4.0 | 9.0 | 0.00 | 0.00 | 0.00 | 65 | 1009.8 |
| 20260502030230 | 72 | 241 | 4.0 | 9.0 | 0.00 | 0.00 | 0.00 | 65 | 1009.8 |
| 20260502030131 | 72 | 215 | 4.0 | 9.0 | 0.00 | 0.00 | 0.00 | 65 | 1009.8 |
| 20260502030024 | 72 | 238 | 4.0 | 9.0 | 0.00 | 0.00 | 0.00 | 65 | 1009.8 |
| 20260502025924 | 72 | 245 | 4.0 | 9.0 | 0.00 | 0.00 | 0.00 | 65 | 1009.8 |
| 20260502025825 | 72 | 240 | 4.0 | 9.0 | 0.00 | 0.00 | 0.00 | 65 | 1009.8 |
| 20260502025811 | 72 | 231 | 4.0 | 9.0 | 0.00 | 0.00 | 0.00 | 65 | 1009.8 |
| 20260502025727 | 72 | 236 | 4.0 | 9.0 | 0.00 | 0.00 | 0.00 | 65 | 1009.8 |
| 20260502025624 | 72 | 193 | 4.0 | 9.0 | 0.00 | 0.00 | 0.00 | 65 | 1009.8 |
| 20260502025520 | 72 | 245 | 4.0 | 9.0 | 0.00 | 0.00 | 0.00 | 65 | 1009.7 |
| 20260502025418 | 72 | 236 | 4.0 | 10.0 | 0.00 | 0.00 | 0.00 | 65 | 1009.8 |
| 20260502025321 | 72 | 234 | 4.0 | 10.0 | 0.00 | 0.00 | 0.00 | 64 | 1009.7 |
| 20260502025310 | 72 | 236 | 4.0 | 10.0 | 0.00 | 0.00 | 0.00 | 64 | 1009.7 |
| 20260502025218 | 72 | 233 | 4.0 | 10.0 | 0.00 | 0.00 | 0.00 | 64 | 1009.7 |
| 20260502025118 | 73 | 216 | 4.0 | 10.0 | 0.00 | 0.00 | 0.00 | 64 | 1009.7 |
| 20260502025013 | 73 | 235 | 4.0 | 10.0 | 0.00 | 0.00 | 0.00 | 64 | 1009.7 |
| 20260502024912 | 73 | 224 | 5.0 | 10.0 | 0.00 | 0.00 | 0.00 | 63 | 1009.7 |
| 20260502024817 | 73 | 228 | 5.0 | 10.0 | 0.00 | 0.00 | 0.00 | 63 | 1009.7 |
| 20260502024713 | 73 | 245 | 5.0 | 10.0 | 0.00 | 0.00 | 0.00 | 63 | 1009.7 |
| 20260502024612 | 73 | 210 | 5.0 | 10.0 | 0.00 | 0.00 | 0.00 | 63 | 1009.8 |
| 20260502024507 | 73 | 231 | 5.0 | 11.0 | 0.00 | 0.00 | 0.00 | 63 | 1009.7 |
| 20260502024406 | 73 | 228 | 5.0 | 11.0 | 0.00 | 0.00 | 0.00 | 62 | 1009.8 |
| 20260502024313 | 73 | 235 | 5.0 | 11.0 | 0.00 | 0.00 | 0.00 | 62 | 1009.8 |
| 20260502024307 | 73 | 232 | 5.0 | 11.0 | 0.00 | 0.00 | 0.00 | 62 | 1009.8 |
| 20260502024206 | 73 | 194 | 5.0 | 11.0 | 0.00 | 0.00 | 0.00 | 62 | 1009.7 |
| 20260502024106 | 73 | 233 | 5.0 | 11.0 | 0.00 | 0.00 | 0.00 | 61 | 1009.8 |
| 20260502024000 | 73 | 222 | 5.0 | 11.0 | 0.00 | 0.00 | 0.00 | 61 | 1009.8 |
| 20260502023900 | 73 | 229 | 5.0 | 11.0 | 0.00 | 0.00 | 0.00 | 61 | 1009.8 |
| 20260502023807 | 74 | 295 | 5.0 | 11.0 | 0.00 | 0.00 | 0.00 | 61 | 1009.8 |
| 20260502023800 | 74 | 239 | 5.0 | 11.0 | 0.00 | 0.00 | 0.00 | 61 | 1009.8 |
| 20260502023701 | 74 | 243 | 5.0 | 11.0 | 0.00 | 0.00 | 0.00 | 61 | 1009.7 |
| 20260502023600 | 74 | 191 | 5.0 | 11.0 | 0.00 | 0.00 | 0.00 | 61 | 1009.8 |
| 20260502023527 | 74 | 262 | 5.0 | 9.0 | 0.00 | 0.00 | 0.00 | 60 | 1009.7 |
| 20260502023456 | 74 | 235 | 5.0 | 9.0 | 0.00 | 0.00 | 0.00 | 61 | 1009.7 |
| 20260502023420 | 74 | 242 | 5.0 | 9.0 | 0.00 | 0.00 | 0.00 | 60 | 1009.7 |
| 20260502023256 | 74 | 224 | 5.0 | 9.0 | 0.00 | 0.00 | 0.00 | 60 | 1009.7 |
| 20260502023156 | 74 | 235 | 4.0 | 9.0 | 0.00 | 0.00 | 0.00 | 60 | 1009.7 |
| 20260502023054 | 74 | 211 | 4.0 | 8.0 | 0.00 | 0.00 | 0.00 | 60 | 1009.6 |
| 20260502022950 | 74 | 218 | 4.0 | 8.0 | 0.00 | 0.00 | 0.00 | 59 | 1009.6 |
| 20260502022849 | 74 | 233 | 4.0 | 8.0 | 0.00 | 0.00 | 0.00 | 59 | 1009.6 |
| 20260502022807 | 74 | 228 | 4.0 | 9.0 | 0.00 | 0.00 | 0.00 | 59 | 1009.6 |
| 20260502022748 | 74 | 252 | 4.0 | 9.0 | 0.00 | 0.00 | 0.00 | 59 | 1009.6 |
| 20260502022648 | 74 | 226 | 4.0 | 9.0 | 0.00 | 0.00 | 0.00 | 59 | 1009.6 |
| 20260502022548 | 74 | 233 | 4.0 | 9.0 | 0.00 | 0.00 | 0.00 | 58 | 1009.6 |
| 20260502022443 | 74 | 210 | 3.0 | 9.0 | 0.00 | 0.00 | 0.00 | 58 | 1009.6 |
| 20260502022342 | 74 | 210 | 3.0 | 9.0 | 0.00 | 0.00 | 0.00 | 58 | 1009.6 |
| 20260502022308 | 74 | 239 | 3.0 | 9.0 | 0.00 | 0.00 | 0.00 | 58 | 1009.6 |
| 20260502022254 | 75 | 224 | 3.0 | 10.0 | 0.00 | 0.00 | 0.00 | 57 | 1009.6 |
| 20260502022242 | 74 | 262 | 3.0 | 9.0 | 0.00 | 0.00 | 0.00 | 58 | 1009.6 |
| 20260502022147 | 74 | 208 | 3.0 | 9.0 | 0.00 | 0.00 | 0.00 | 58 | 1009.6 |
| 20260502022138 | 75 | 198 | 3.0 | 10.0 | 0.00 | 0.00 | 0.00 | 58 | 1009.6 |
| 20260502021938 | 75 | 217 | 3.0 | 10.0 | 0.00 | 0.00 | 0.00 | 57 | 1009.6 |
| 20260502021919 | 75 | 253 | 3.0 | 10.0 | 0.00 | 0.00 | 0.00 | 57 | 1009.6 |
| 20260502021737 | 75 | 238 | 3.0 | 10.0 | 0.00 | 0.00 | 0.00 | 57 | 1009.6 |
| 20260502021636 | 75 | 226 | 3.0 | 10.0 | 0.00 | 0.00 | 0.00 | 56 | 1009.5 |
| 20260502021536 | 75 | 225 | 3.0 | 10.0 | 0.00 | 0.00 | 0.00 | 56 | 1009.6 |
| 20260502021430 | 75 | 245 | 3.0 | 10.0 | 0.00 | 0.00 | 0.00 | 56 | 1009.6 |
| 20260502021330 | 75 | 224 | 3.0 | 10.0 | 0.00 | 0.00 | 0.00 | 56 | 1009.6 |
| 20260502021308 | 75 | 264 | 3.0 | 10.0 | 0.00 | 0.00 | 0.00 | 55 | 1009.6 |
| 20260502021230 | 75 | 219 | 3.0 | 10.0 | 0.00 | 0.00 | 0.00 | 56 | 1009.6 |
| 20260502021130 | 75 | 250 | 2.0 | 8.0 | 0.00 | 0.00 | 0.00 | 56 | 1009.6 |
| 20260502021030 | 75 | 221 | 2.0 | 8.0 | 0.00 | 0.00 | 0.00 | 56 | 1009.6 |
| 20260502020926 | 75 | 203 | 2.0 | 8.0 | 0.00 | 0.00 | 0.00 | 56 | 1009.5 |
| 20260502020807 | 75 | 212 | 2.0 | 8.0 | 0.00 | 0.00 | 0.00 | 56 | 1009.6 |
| 20260502020727 | 76 | 208 | 2.0 | 8.0 | 0.00 | 0.00 | 0.00 | 55 | 1009.6 |
| 20260502020627 | 76 | 212 | 2.0 | 8.0 | 0.00 | 0.00 | 0.00 | 55 | 1009.5 |
| 20260502020530 | 76 | 218 | 3.0 | 6.0 | 0.00 | 0.00 | 0.00 | 55 | 1009.5 |
| 20260502020524 | 76 | 224 | 2.0 | 6.0 | 0.00 | 0.00 | 0.00 | 55 | 1009.5 |
| 20260502020427 | 76 | 181 | 3.0 | 6.0 | 0.00 | 0.00 | 0.00 | 55 | 1009.5 |
| 20260502020419 | 76 | 229 | 3.0 | 6.0 | 0.00 | 0.00 | 0.00 | 55 | 1009.5 |
| 20260502020218 | 76 | 236 | 3.0 | 6.0 | 0.00 | 0.00 | 0.00 | 55 | 1009.6 |
| 20260502020118 | 76 | 239 | 3.0 | 6.0 | 0.00 | 0.00 | 0.00 | 54 | 1009.5 |
| 20260502020018 | 76 | 233 | 3.0 | 6.0 | 0.00 | 0.00 | 0.00 | 54 | 1009.6 |
| 20260502015919 | 76 | 233 | 3.0 | 6.0 | 0.00 | 0.00 | 0.00 | 54 | 1009.5 |
| 20260502015818 | 76 | 217 | 4.0 | 6.0 | 0.00 | 0.00 | 0.00 | 54 | 1009.5 |
| 20260502015807 | 76 | 161 | 4.0 | 6.0 | 0.00 | 0.00 | 0.00 | 54 | 1009.5 |
| 20260502015717 | 76 | 228 | 4.0 | 6.0 | 0.00 | 0.00 | 0.00 | 53 | 1009.5 |
| 20260502015616 | 76 | 222 | 3.0 | 6.0 | 0.00 | 0.00 | 0.00 | 53 | 1009.5 |
| 20260502015516 | 76 | 204 | 3.0 | 6.0 | 0.00 | 0.00 | 0.00 | 53 | 1009.5 |
| 20260502015416 | 76 | 231 | 3.0 | 6.0 | 0.00 | 0.00 | 0.00 | 53 | 1009.6 |
| 20260502015308 | 76 | 245 | 3.0 | 6.0 | 0.00 | 0.00 | 0.00 | 52 | 1009.5 |
| 20260502015213 | 76 | 239 | 3.0 | 6.0 | 0.00 | 0.00 | 0.00 | 53 | 1009.5 |
| 20260502015112 | 76 | 158 | 3.0 | 6.0 | 0.00 | 0.00 | 0.00 | 52 | 1009.5 |
| 20260502015012 | 76 | 238 | 3.0 | 6.0 | 0.00 | 0.00 | 0.00 | 52 | 1009.5 |
| 20260502014914 | 76 | 239 | 3.0 | 6.0 | 0.00 | 0.00 | 0.00 | 52 | 1009.6 |
| 20260502014829 | 76 | 160 | 3.0 | 9.0 | 0.00 | 0.00 | 0.00 | 52 | 1009.6 |
| 20260502014819 | 76 | 162 | 3.0 | 9.0 | 0.00 | 0.00 | 0.00 | 52 | 1009.6 |
| 20260502014710 | 76 | 221 | 3.0 | 9.0 | 0.00 | 0.00 | 0.00 | 51 | 1009.5 |
| 20260502014611 | 76 | 243 | 3.0 | 9.0 | 0.00 | 0.00 | 0.00 | 51 | 1009.6 |
| 20260502014526 | 76 | 250 | 3.0 | 9.0 | 0.00 | 0.00 | 0.00 | 50 | 1009.6 |
| 20260502014510 | 76 | 215 | 3.0 | 9.0 | 0.00 | 0.00 | 0.00 | 51 | 1009.6 |
| 20260502014425 | 76 | 250 | 3.0 | 9.0 | 0.00 | 0.00 | 0.00 | 50 | 1009.6 |
| 20260502014416 | 76 | 250 | 3.0 | 9.0 | 0.00 | 0.00 | 0.00 | 50 | 1009.6 |
| 20260502014211 | 76 | 233 | 3.0 | 9.0 | 0.00 | 0.00 | 0.00 | 50 | 1009.6 |
| 20260502014108 | 76 | 232 | 3.0 | 9.0 | 0.00 | 0.00 | 0.00 | 49 | 1009.6 |
| 20260502014009 | 76 | 235 | 3.0 | 9.0 | 0.00 | 0.00 | 0.00 | 49 | 1009.7 |
| 20260502013908 | 76 | 231 | 3.0 | 9.0 | 0.00 | 0.00 | 0.00 | 49 | 1009.7 |
| 20260502013811 | 76 | 226 | 3.0 | 8.0 | 0.00 | 0.00 | 0.00 | 49 | 1009.7 |
| 20260502013703 | 77 | 231 | 3.0 | 7.0 | 0.00 | 0.00 | 0.00 | 49 | 1009.7 |
| 20260502013603 | 77 | 207 | 3.0 | 7.0 | 0.00 | 0.00 | 0.00 | 48 | 1009.7 |
| 20260502013502 | 77 | 223 | 3.0 | 7.0 | 0.00 | 0.00 | 0.00 | 48 | 1009.7 |
| 20260502013402 | 77 | 240 | 3.0 | 7.0 | 0.00 | 0.00 | 0.00 | 48 | 1009.7 |
| 20260502013304 | 77 | 240 | 3.0 | 7.0 | 0.00 | 0.00 | 0.00 | 48 | 1009.7 |
| 20260502013156 | 77 | 228 | 3.0 | 7.0 | 0.00 | 0.00 | 0.00 | 48 | 1009.7 |
| 20260502013056 | 77 | 239 | 3.0 | 7.0 | 0.00 | 0.00 | 0.00 | 48 | 1009.6 |
| 20260502012957 | 77 | 225 | 3.0 | 7.0 | 0.00 | 0.00 | 0.00 | 48 | 1009.7 |
| 20260502012856 | 77 | 240 | 3.0 | 7.0 | 0.00 | 0.00 | 0.00 | 49 | 1009.7 |
| 20260502012804 | 77 | 224 | 3.0 | 7.0 | 0.00 | 0.00 | 0.00 | 49 | 1009.7 |
| 20260502012756 | 77 | 221 | 3.0 | 7.0 | 0.00 | 0.00 | 0.00 | 49 | 1009.7 |
| 20260502012653 | 77 | 184 | 4.0 | 8.0 | 0.00 | 0.00 | 0.00 | 49 | 1009.7 |
| 20260502012551 | 77 | 210 | 4.0 | 8.0 | 0.00 | 0.00 | 0.00 | 49 | 1009.6 |
| 20260502012450 | 77 | 236 | 4.0 | 8.0 | 0.00 | 0.00 | 0.00 | 48 | 1009.7 |
| 20260502012350 | 77 | 255 | 4.0 | 8.0 | 0.00 | 0.00 | 0.00 | 48 | 1009.7 |
| 20260502012257 | 77 | 239 | 4.0 | 8.0 | 0.00 | 0.00 | 0.00 | 47 | 1009.7 |
| 20260502012250 | 77 | 225 | 4.0 | 8.0 | 0.00 | 0.00 | 0.00 | 47 | 1009.7 |
| 20260502012144 | 77 | 137 | 3.0 | 8.0 | 0.00 | 0.00 | 0.00 | 47 | 1009.7 |
| 20260502012044 | 77 | 219 | 3.0 | 8.0 | 0.00 | 0.00 | 0.00 | 48 | 1009.7 |
| 20260502011945 | 77 | 269 | 3.0 | 8.0 | 0.00 | 0.00 | 0.00 | 48 | 1009.7 |
| 20260502011844 | 77 | 229 | 3.0 | 8.0 | 0.00 | 0.00 | 0.00 | 48 | 1009.7 |
| 20260502011758 | 77 | 232 | 3.0 | 8.0 | 0.00 | 0.00 | 0.00 | 48 | 1009.7 |
| 20260502011743 | 77 | 238 | 2.0 | 8.0 | 0.00 | 0.00 | 0.00 | 48 | 1009.7 |
| 20260502011641 | 77 | 259 | 2.0 | 8.0 | 0.00 | 0.00 | 0.00 | 50 | 1009.7 |
| 20260502011540 | 77 | 222 | 2.0 | 7.0 | 0.00 | 0.00 | 0.00 | 50 | 1009.7 |
| 20260502011440 | 77 | 218 | 2.0 | 7.0 | 0.00 | 0.00 | 0.00 | 50 | 1009.7 |
| 20260502011341 | 77 | 218 | 3.0 | 7.0 | 0.00 | 0.00 | 0.00 | 51 | 1009.7 |
| 20260502011258 | 78 | 242 | 3.0 | 7.0 | 0.00 | 0.00 | 0.00 | 51 | 1009.7 |
| 20260502011238 | 78 | 223 | 3.0 | 7.0 | 0.00 | 0.00 | 0.00 | 52 | 1009.7 |
| 20260502011134 | 78 | 236 | 3.0 | 7.0 | 0.00 | 0.00 | 0.00 | 52 | 1009.7 |
| 20260502011034 | 78 | 228 | 3.0 | 7.0 | 0.00 | 0.00 | 0.00 | 51 | 1009.7 |
| 20260502010934 | 78 | 174 | 3.0 | 10.0 | 0.00 | 0.00 | 0.00 | 51 | 1009.7 |
| 20260502010834 | 78 | 238 | 3.0 | 10.0 | 0.00 | 0.00 | 0.00 | 51 | 1009.8 |
| 20260502010756 | 78 | 239 | 3.0 | 10.0 | 0.00 | 0.00 | 0.00 | 51 | 1009.8 |
| 20260502010732 | 78 | 224 | 3.0 | 10.0 | 0.00 | 0.00 | 0.00 | 51 | 1009.7 |
| 20260502010631 | 78 | 229 | 4.0 | 10.0 | 0.00 | 0.00 | 0.00 | 51 | 1009.8 |
| 20260502010531 | 78 | 228 | 4.0 | 10.0 | 0.00 | 0.00 | 0.00 | 51 | 1009.8 |
| 20260502010428 | 78 | 165 | 4.0 | 10.0 | 0.00 | 0.00 | 0.00 | 51 | 1009.8 |
| 20260502010328 | 78 | 238 | 4.0 | 10.0 | 0.00 | 0.00 | 0.00 | 51 | 1009.8 |
| 20260502010255 | 78 | 231 | 4.0 | 10.0 | 0.00 | 0.00 | 0.00 | 51 | 1009.8 |
| 20260502010227 | 78 | 210 | 4.0 | 10.0 | 0.00 | 0.00 | 0.00 | 51 | 1009.8 |
| 20260502010121 | 78 | 239 | 4.0 | 10.0 | 0.00 | 0.00 | 0.00 | 51 | 1009.8 |
| 20260502010021 | 78 | 214 | 4.0 | 10.0 | 0.00 | 0.00 | 0.00 | 51 | 1009.8 |
| 20260502005920 | 78 | 236 | 4.0 | 9.0 | 0.00 | 0.00 | 0.00 | 52 | 1009.8 |
| 20260502005820 | 78 | 243 | 4.0 | 9.0 | 0.00 | 0.00 | 0.00 | 51 | 1009.8 |
| 20260502005757 | 78 | 266 | 4.0 | 9.0 | 0.00 | 0.00 | 0.00 | 51 | 1009.8 |
| 20260502005720 | 79 | 226 | 4.0 | 9.0 | 0.00 | 0.00 | 0.00 | 51 | 1009.8 |
| 20260502005616 | 79 | 238 | 4.0 | 9.0 | 0.00 | 0.00 | 0.00 | 51 | 1009.8 |
| 20260502005522 | 79 | 232 | 3.0 | 7.0 | 0.00 | 0.00 | 0.00 | 50 | 1009.7 |
| 20260502005515 | 79 | 240 | 3.0 | 9.0 | 0.00 | 0.00 | 0.00 | 50 | 1009.8 |
| 20260502005418 | 79 | 240 | 3.0 | 8.0 | 0.00 | 0.00 | 0.00 | 50 | 1009.8 |
| 20260502005410 | 79 | 233 | 3.0 | 7.0 | 0.00 | 0.00 | 0.00 | 50 | 1009.7 |
| 20260502005214 | 80 | 236 | 2.0 | 7.0 | 0.00 | 0.00 | 0.00 | 50 | 1009.8 |
| 20260502005112 | 80 | 243 | 2.0 | 7.0 | 0.00 | 0.00 | 0.00 | 50 | 1009.8 |
| 20260502005012 | 80 | 240 | 2.0 | 5.0 | 0.00 | 0.00 | 0.00 | 51 | 1009.8 |
| 20260502004910 | 80 | 210 | 1.0 | 4.0 | 0.00 | 0.00 | 0.00 | 50 | 1009.8 |
| 20260502004811 | 80 | 231 | 2.0 | 4.0 | 0.00 | 0.00 | 0.00 | 50 | 1009.8 |
| 20260502004755 | 80 | 231 | 2.0 | 4.0 | 0.00 | 0.00 | 0.00 | 49 | 1009.8 |
| 20260502004708 | 80 | 245 | 2.0 | 6.0 | 0.00 | 0.00 | 0.00 | 49 | 1009.7 |
| 20260502004604 | 80 | 219 | 1.0 | 6.0 | 0.00 | 0.00 | 0.00 | 49 | 1009.7 |
| 20260502004505 | 80 | 195 | 1.0 | 6.0 | 0.00 | 0.00 | 0.00 | 49 | 1009.8 |
| 20260502004405 | 80 | 217 | 2.0 | 6.0 | 0.00 | 0.00 | 0.00 | 49 | 1009.7 |
| 20260502004306 | 80 | 202 | 2.0 | 6.0 | 0.00 | 0.00 | 0.00 | 49 | 1009.7 |
| 20260502004256 | 80 | 221 | 2.0 | 6.0 | 0.00 | 0.00 | 0.00 | 49 | 1009.7 |
| 20260502004202 | 80 | 144 | 2.0 | 6.0 | 0.00 | 0.00 | 0.00 | 49 | 1009.8 |
| 20260502004102 | 80 | 239 | 2.0 | 6.0 | 0.00 | 0.00 | 0.00 | 49 | 1009.8 |
| 20260502004023 | 80 | 246 | 2.0 | 6.0 | 0.00 | 0.00 | 0.00 | 48 | 1009.8 |
| 20260502004000 | 80 | 239 | 2.0 | 6.0 | 0.00 | 0.00 | 0.00 | 49 | 1009.8 |
| 20260502003916 | 80 | 239 | 2.0 | 6.0 | 0.00 | 0.00 | 0.00 | 48 | 1009.8 |
| 20260502003905 | 80 | 246 | 2.0 | 6.0 | 0.00 | 0.00 | 0.00 | 48 | 1009.8 |
| 20260502003738 | 80 | 238 | 2.0 | 5.0 | 0.00 | 0.00 | 0.00 | 49 | 1009.8 |
| 20260502003656 | 80 | 224 | 2.0 | 5.0 | 0.00 | 0.00 | 0.00 | 49 | 1009.8 |
| 20260502003628 | 80 | 224 | 2.0 | 5.0 | 0.00 | 0.00 | 0.00 | 49 | 1009.8 |
| 20260502003450 | 80 | 238 | 2.0 | 5.0 | 0.00 | 0.00 | 0.00 | 49 | 1009.8 |
| 20260502003408 | 80 | 217 | 2.0 | 5.0 | 0.00 | 0.00 | 0.00 | 48 | 1009.9 |
| 20260502003251 | 80 | 238 | 2.0 | 5.0 | 0.00 | 0.00 | 0.00 | 49 | 1009.8 |
| 20260502003150 | 80 | 193 | 3.0 | 5.0 | 0.00 | 0.00 | 0.00 | 49 | 1009.8 |
| 20260502003048 | 80 | 148 | 3.0 | 7.0 | 0.00 | 0.00 | 0.00 | 49 | 1009.8 |
| 20260502002949 | 80 | 231 | 3.0 | 7.0 | 0.00 | 0.00 | 0.00 | 49 | 1009.8 |
| 20260502002847 | 80 | 238 | 3.0 | 7.0 | 0.00 | 0.00 | 0.00 | 49 | 1009.8 |
| 20260502002748 | 80 | 219 | 3.0 | 7.0 | 0.00 | 0.00 | 0.00 | 50 | 1009.8 |
| 20260502002649 | 80 | 242 | 3.0 | 7.0 | 0.00 | 0.00 | 0.00 | 49 | 1009.8 |
| 20260502002546 | 80 | 219 | 3.0 | 7.0 | 0.00 | 0.00 | 0.00 | 49 | 1009.8 |
| 20260502002513 | 80 | 243 | 3.0 | 7.0 | 0.00 | 0.00 | 0.00 | 50 | 1009.8 |
| 20260502002447 | 80 | 224 | 3.0 | 7.0 | 0.00 | 0.00 | 0.00 | 49 | 1009.8 |
| 20260502002403 | 80 | 228 | 3.0 | 7.0 | 0.00 | 0.00 | 0.00 | 49 | 1009.8 |
| 20260502002244 | 80 | 239 | 3.0 | 7.0 | 0.00 | 0.00 | 0.00 | 50 | 1009.8 |
| 20260502002144 | 80 | 229 | 3.0 | 7.0 | 0.00 | 0.00 | 0.00 | 49 | 1009.9 |
| 20260502002045 | 80 | 260 | 3.0 | 6.0 | 0.00 | 0.00 | 0.00 | 50 | 1009.8 |
| 20260502001945 | 80 | 241 | 3.0 | 6.0 | 0.00 | 0.00 | 0.00 | 50 | 1009.9 |
| 20260502001845 | 80 | 154 | 3.0 | 6.0 | 0.00 | 0.00 | 0.00 | 50 | 1009.9 |
| 20260502001753 | 80 | 236 | 3.0 | 6.0 | 0.00 | 0.00 | 0.00 | 50 | 1009.9 |
| 20260502001744 | 80 | 219 | 3.0 | 6.0 | 0.00 | 0.00 | 0.00 | 50 | 1009.9 |
| 20260502001644 | 80 | 210 | 4.0 | 7.0 | 0.00 | 0.00 | 0.00 | 50 | 1009.9 |
| 20260502001545 | 80 | 194 | 4.0 | 7.0 | 0.00 | 0.00 | 0.00 | 50 | 1009.9 |
| 20260502001444 | 80 | 243 | 4.0 | 7.0 | 0.00 | 0.00 | 0.00 | 49 | 1009.9 |
| 20260502001338 | 80 | 189 | 4.0 | 7.0 | 0.00 | 0.00 | 0.00 | 49 | 1009.9 |
| 20260502001253 | 80 | 165 | 4.0 | 7.0 | 0.00 | 0.00 | 0.00 | 49 | 1009.9 |
| 20260502001238 | 80 | 250 | 3.0 | 7.0 | 0.00 | 0.00 | 0.00 | 49 | 1009.9 |
| 20260502001138 | 80 | 133 | 3.0 | 7.0 | 0.00 | 0.00 | 0.00 | 49 | 1009.9 |
| 20260502001036 | 80 | 210 | 3.0 | 7.0 | 0.00 | 0.00 | 0.00 | 49 | 1009.9 |
| 20260502000936 | 80 | 219 | 3.0 | 7.0 | 0.00 | 0.00 | 0.00 | 49 | 1009.9 |
| 20260502000830 | 80 | 181 | 3.0 | 7.0 | 0.00 | 0.00 | 0.00 | 49 | 1009.9 |
| 20260502000753 | 80 | 151 | 3.0 | 7.0 | 0.00 | 0.00 | 0.00 | 49 | 1009.8 |
| 20260502000731 | 80 | 201 | 3.0 | 7.0 | 0.00 | 0.00 | 0.00 | 49 | 1009.8 |
| 20260502000630 | 80 | 215 | 3.0 | 7.0 | 0.00 | 0.00 | 0.00 | 48 | 1009.8 |
| 20260502000530 | 81 | 221 | 2.0 | 6.0 | 0.00 | 0.00 | 0.00 | 49 | 1009.8 |
| 20260502000431 | 81 | 229 | 3.0 | 6.0 | 0.00 | 0.00 | 0.00 | 49 | 1009.8 |
| 20260502000332 | 81 | 207 | 3.0 | 7.0 | 0.00 | 0.00 | 0.00 | 49 | 1009.8 |
| 20260502000247 | 81 | 215 | 3.0 | 9.0 | 0.00 | 0.00 | 0.00 | 49 | 1009.8 |
| 20260502000229 | 81 | 183 | 3.0 | 9.0 | 0.00 | 0.00 | 0.00 | 49 | 1009.8 |
| 20260502000128 | 81 | 276 | 3.0 | 9.0 | 0.00 | 0.00 | 0.00 | 49 | 1009.9 |
| 20260502000026 | 81 | 245 | 3.0 | 9.0 | 0.00 | 0.00 | 0.00 | 49 | 1009.9 |
| 20260501235924 | 81 | 225 | 3.0 | 9.0 | 0.00 | 0.00 | 0.00 | 49 | 1009.9 |
| 20260501235820 | 81 | 236 | 3.0 | 9.0 | 0.00 | 0.00 | 0.00 | 49 | 1009.9 |
| 20260501235740 | 81 | 172 | 3.0 | 9.0 | 0.00 | 0.00 | 0.00 | 49 | 1009.9 |
| 20260501235718 | 81 | 229 | 3.0 | 9.0 | 0.00 | 0.00 | 0.00 | 49 | 1009.9 |
| 20260501235619 | 81 | 218 | 4.0 | 9.0 | 0.00 | 0.00 | 0.00 | 49 | 1009.9 |
| 20260501235518 | 81 | 216 | 4.0 | 9.0 | 0.00 | 0.00 | 0.00 | 49 | 1009.9 |
| 20260501235418 | 81 | 221 | 4.0 | 9.0 | 0.00 | 0.00 | 0.00 | 49 | 1009.9 |
| 20260501235313 | 81 | 235 | 3.0 | 8.0 | 0.00 | 0.00 | 0.00 | 50 | 1010.0 |
| 20260501235233 | 81 | 229 | 3.0 | 8.0 | 0.00 | 0.00 | 0.00 | 50 | 1009.9 |
| 20260501235216 | 82 | 217 | 3.0 | 9.0 | 0.00 | 0.00 | 0.00 | 49 | 1010.0 |
| 20260501235212 | 81 | 240 | 3.0 | 8.0 | 0.00 | 0.00 | 0.00 | 49 | 1009.9 |
| 20260501235113 | 82 | 226 | 3.0 | 8.0 | 0.00 | 0.00 | 0.00 | 48 | 1010.0 |
| 20260501235056 | 82 | 253 | 3.0 | 8.0 | 0.00 | 0.00 | 0.00 | 49 | 1010.0 |
| 20260501234916 | 82 | 250 | 3.0 | 7.0 | 0.00 | 0.00 | 0.00 | 49 | 1009.9 |
| 20260501234839 | 82 | 165 | 3.0 | 7.0 | 0.00 | 0.00 | 0.00 | 49 | 1010.0 |
| 20260501234706 | 82 | 136 | 3.0 | 9.0 | 0.00 | 0.00 | 0.00 | 49 | 1010.0 |
| 20260501234607 | 82 | 231 | 3.0 | 9.0 | 0.00 | 0.00 | 0.00 | 49 | 1010.0 |
| 20260501234506 | 82 | 236 | 3.0 | 9.0 | 0.00 | 0.00 | 0.00 | 50 | 1010.0 |
| 20260501234449 | 83 | 231 | 2.0 | 9.0 | 0.00 | 0.00 | 0.00 | 48 | 1010.1 |
| 20260501234405 | 83 | 259 | 3.0 | 9.0 | 0.00 | 0.00 | 0.00 | 49 | 1010.0 |
| 20260501234335 | 83 | 242 | 3.0 | 9.0 | 0.00 | 0.00 | 0.00 | 48 | 1010.0 |
| 20260501234204 | 83 | 218 | 2.0 | 9.0 | 0.00 | 0.00 | 0.00 | 48 | 1010.1 |
| 20260501234104 | 83 | 242 | 2.0 | 9.0 | 0.00 | 0.00 | 0.00 | 48 | 1010.1 |
| 20260501234002 | 83 | 243 | 2.0 | 9.0 | 0.00 | 0.00 | 0.00 | 47 | 1010.1 |
| 20260501233900 | 84 | 217 | 2.0 | 9.0 | 0.00 | 0.00 | 0.00 | 47 | 1010.1 |
| 20260501233756 | 84 | 207 | 2.0 | 9.0 | 0.00 | 0.00 | 0.00 | 46 | 1010.1 |
| 20260501233716 | 84 | 197 | 1.0 | 5.0 | 0.00 | 0.00 | 0.00 | 46 | 1010.1 |
| 20260501233654 | 84 | 232 | 1.0 | 5.0 | 0.00 | 0.00 | 0.00 | 46 | 1010.1 |
| 20260501233554 | 84 | 217 | 1.0 | 5.0 | 0.00 | 0.00 | 0.00 | 46 | 1010.2 |
| 20260501233455 | 84 | 232 | 1.0 | 5.0 | 0.00 | 0.00 | 0.00 | 46 | 1010.1 |
| 20260501233354 | 84 | 231 | 1.0 | 5.0 | 0.00 | 0.00 | 0.00 | 46 | 1010.1 |
| 20260501233254 | 84 | 266 | 1.0 | 5.0 | 0.00 | 0.00 | 0.00 | 45 | 1010.1 |
| 20260501233210 | 84 | 266 | 1.0 | 5.0 | 0.00 | 0.00 | 0.00 | 45 | 1010.2 |
| 20260501233153 | 85 | 266 | 1.0 | 5.0 | 0.00 | 0.00 | 0.00 | 45 | 1010.2 |
| 20260501233052 | 85 | 266 | 1.0 | 5.0 | 0.00 | 0.00 | 0.00 | 46 | 1010.2 |
| 20260501232950 | 85 | 266 | 1.0 | 5.0 | 0.00 | 0.00 | 0.00 | 45 | 1010.2 |
| 20260501232848 | 85 | 267 | 1.0 | 5.0 | 0.00 | 0.00 | 0.00 | 45 | 1010.2 |
| 20260501232746 | 85 | 226 | 1.0 | 4.0 | 0.00 | 0.00 | 0.00 | 45 | 1010.2 |
| 20260501232704 | 85 | 219 | 0.0 | 3.0 | 0.00 | 0.00 | 0.00 | 46 | 1010.2 |
| 20260501232647 | 85 | 219 | 0.0 | 3.0 | 0.00 | 0.00 | 0.00 | 45 | 1010.2 |
| 20260501232546 | 85 | 220 | 1.0 | 3.0 | 0.00 | 0.00 | 0.00 | 45 | 1010.2 |
| 20260501232444 | 85 | 219 | 1.0 | 3.0 | 0.00 | 0.00 | 0.00 | 46 | 1010.2 |
| 20260501232343 | 85 | 219 | 1.0 | 3.0 | 0.00 | 0.00 | 0.00 | 46 | 1010.2 |
| 20260501232236 | 84 | 219 | 1.0 | 3.0 | 0.00 | 0.00 | 0.00 | 45 | 1010.2 |
| 20260501232159 | 84 | 219 | 1.0 | 4.0 | 0.00 | 0.00 | 0.00 | 45 | 1010.2 |
| 20260501232136 | 84 | 228 | 1.0 | 4.0 | 0.00 | 0.00 | 0.00 | 45 | 1010.2 |
| 20260501232037 | 84 | 228 | 1.0 | 4.0 | 0.00 | 0.00 | 0.00 | 45 | 1010.2 |
| 20260501231937 | 84 | 144 | 1.0 | 4.0 | 0.00 | 0.00 | 0.00 | 44 | 1010.2 |
| 20260501231836 | 84 | 143 | 1.0 | 4.0 | 0.00 | 0.00 | 0.00 | 45 | 1010.2 |
| 20260501231734 | 84 | 143 | 1.0 | 4.0 | 0.00 | 0.00 | 0.00 | 45 | 1010.3 |
| 20260501231653 | 84 | 204 | 1.0 | 4.0 | 0.00 | 0.00 | 0.00 | 45 | 1010.3 |
| 20260501231634 | 84 | 205 | 1.0 | 4.0 | 0.00 | 0.00 | 0.00 | 47 | 1010.3 |
| 20260501231534 | 84 | 231 | 1.0 | 4.0 | 0.00 | 0.00 | 0.00 | 47 | 1010.3 |
| 20260501231433 | 84 | 231 | 1.0 | 4.0 | 0.00 | 0.00 | 0.00 | 47 | 1010.3 |
| 20260501231330 | 84 | 229 | 1.0 | 6.0 | 0.00 | 0.00 | 0.00 | 47 | 1010.3 |
| 20260501231227 | 84 | 224 | 1.0 | 6.0 | 0.00 | 0.00 | 0.00 | 47 | 1010.3 |
| 20260501231146 | 84 | 221 | 1.0 | 6.0 | 0.00 | 0.00 | 0.00 | 48 | 1010.3 |
| 20260501231124 | 84 | 219 | 1.0 | 6.0 | 0.00 | 0.00 | 0.00 | 48 | 1010.3 |
| 20260501231024 | 84 | 212 | 1.0 | 6.0 | 0.00 | 0.00 | 0.00 | 46 | 1010.3 |
| 20260501230925 | 84 | 278 | 1.0 | 6.0 | 0.00 | 0.00 | 0.00 | 48 | 1010.3 |
| 20260501230825 | 84 | 203 | 1.0 | 6.0 | 0.00 | 0.00 | 0.00 | 47 | 1010.4 |
| 20260501230719 | 84 | 124 | 1.0 | 6.0 | 0.00 | 0.00 | 0.00 | 47 | 1010.3 |
| 20260501230639 | 83 | 221 | 1.0 | 6.0 | 0.00 | 0.00 | 0.00 | 48 | 1010.4 |
| 20260501230619 | 83 | 131 | 1.0 | 6.0 | 0.00 | 0.00 | 0.00 | 49 | 1010.4 |
| 20260501230518 | 83 | 163 | 1.0 | 6.0 | 0.00 | 0.00 | 0.00 | 48 | 1010.4 |
| 20260501230418 | 83 | 219 | 0.0 | 6.0 | 0.00 | 0.00 | 0.00 | 48 | 1010.4 |
| 20260501230318 | 83 | 185 | 0.0 | 4.0 | 0.00 | 0.00 | 0.00 | 48 | 1010.4 |
| 20260501230214 | 83 | 222 | 0.0 | 4.0 | 0.00 | 0.00 | 0.00 | 47 | 1010.4 |
| 20260501230135 | 83 | 259 | 1.0 | 6.0 | 0.00 | 0.00 | 0.00 | 49 | 1010.4 |
| 20260501230112 | 83 | 259 | 1.0 | 7.0 | 0.00 | 0.00 | 0.00 | 49 | 1010.4 |
| 20260501230013 | 83 | 259 | 1.0 | 7.0 | 0.00 | 0.00 | 0.00 | 49 | 1010.5 |
| 20260501225912 | 83 | 259 | 1.0 | 7.0 | 0.00 | 0.00 | 0.00 | 49 | 1010.5 |
| 20260501225813 | 83 | 259 | 1.0 | 7.0 | 0.00 | 0.00 | 0.00 | 49 | 1010.5 |
| 20260501225713 | 83 | 259 | 1.0 | 7.0 | 0.00 | 0.00 | 0.00 | 49 | 1010.5 |
| 20260501225610 | 83 | 259 | 1.0 | 7.0 | 0.00 | 0.00 | 0.00 | 49 | 1010.6 |
| 20260501225513 | 83 | 259 | 2.0 | 7.0 | 0.00 | 0.00 | 0.00 | 48 | 1010.6 |
| 20260501225409 | 83 | 259 | 2.0 | 7.0 | 0.00 | 0.00 | 0.00 | 49 | 1010.6 |
| 20260501225306 | 83 | 259 | 2.0 | 7.0 | 0.00 | 0.00 | 0.00 | 48 | 1010.6 |
| 20260501225204 | 83 | 193 | 2.0 | 7.0 | 0.00 | 0.00 | 0.00 | 48 | 1010.6 |
| 20260501225122 | 83 | 176 | 2.0 | 7.0 | 0.00 | 0.00 | 0.00 | 49 | 1010.6 |
| 20260501225104 | 83 | 231 | 2.0 | 6.0 | 0.00 | 0.00 | 0.00 | 49 | 1010.6 |
| 20260501225004 | 83 | 143 | 2.0 | 6.0 | 0.00 | 0.00 | 0.00 | 49 | 1010.6 |
| 20260501224902 | 83 | 141 | 2.0 | 6.0 | 0.00 | 0.00 | 0.00 | 49 | 1010.7 |
| 20260501224800 | 83 | 163 | 2.0 | 6.0 | 0.00 | 0.00 | 0.00 | 50 | 1010.7 |
| 20260501224657 | 83 | 224 | 2.0 | 6.0 | 0.00 | 0.00 | 0.00 | 50 | 1010.7 |
| 20260501224617 | 83 | 224 | 2.0 | 6.0 | 0.00 | 0.00 | 0.00 | 49 | 1010.7 |
| 20260501224555 | 83 | 224 | 2.0 | 6.0 | 0.00 | 0.00 | 0.00 | 49 | 1010.7 |
| 20260501224454 | 83 | 163 | 2.0 | 6.0 | 0.00 | 0.00 | 0.00 | 50 | 1010.7 |